     2              OBSERVATION DATA    GPS                 RINEX VERSION / TYPE
srx v1.3 (5/19/93) STARR 93/10/11 17:37:13                  PGM / RUN BY / DATE
                                                            COMMENT
sig: 9 8 7 6 5 4 1 0                                        COMMENT
sig: 9 8 7 6 5 4 1 0                                        COMMENT
sig: 9 8 7 6 5 4 1 0                                        COMMENT
Original Marker Name: 3079                                  COMMENT
Campaign Name: Baja (Dixon) 1993                            COMMENT
4-Character Station Name: 3079                              COMMENT
6-Character Antenna Code: DMRCHT                            COMMENT
Vertical Measurement Point: BPA                             COMMENT
Vertical Offset to Rinex Ref. Point: 0.0000                 COMMENT
Radial Measurement Point: RRP                               COMMENT
Radial Offset to Rinex Ref. Point: 0.0000                   COMMENT
Antenna Height from Field Measurement: 0.0614 m             COMMENT
Additional Antenna Identification Info.:                    COMMENT
Turborogue and Ashtech Choke Ring                           COMMENT
Original XYZ: -2493309.0382 -4655182.3466 3565500.9443      COMMENT
New XYZ position is based on association with SCEC monument COMMENT
E1C2M2S3+0011. Position of that monument is believed to be  COMMENT
valid to within 1 m horizontally; vertical accuracy         COMMENT
should be no worse than 3-times this value.                 COMMENT
                                                            COMMENT
Revised Rinex header created by UCSD GPS archive for        COMMENT
GSAC on 09-Nov-2004 (2004:314) 21:58:13 GMT                 COMMENT
For assistance contact dagnew@ucsd.edu                      COMMENT
or anderson@python.ucsd.edu                                 COMMENT
                                                            COMMENT
3079S                                                       MARKER NAME
THE OBSERVER WAS?___JET PROPULSION LABORATORY               OBSERVER / AGENCY
132 TURBOROGUE SNR-8000 100.1                               REC # / TYPE / VERS
132 DORNE-MARGOL. TYPE T                                    ANT # / TYPE
 -2379901.0000 -4893030.0000  3318684.0000                  APPROX POSITION XYZ
        0.0614        0.0000        0.0000                  ANTENNA: DELTA H/E/N
     1     1     0                                          WAVELENGTH FACT L1/2
     4    L1    L2    P1    P2                              # / TYPES OF OBSERV
   120                                                      INTERVAL
  1993     4     7    13    46    0.000000                  TIME OF FIRST OBS
  1993     4     7    22    14    0.000000                  TIME OF LAST OBS
    18                                                      # OF SATELLITES
          01   131   131   131   131                        PRN / # OF OBS
          02   469   469   469   469                        PRN / # OF OBS
          11   482   482   482   482                        PRN / # OF OBS
          13   107   107   107   107                        PRN / # OF OBS
          14   571   571   571   571                        PRN / # OF OBS
          15   518   518   518   518                        PRN / # OF OBS
          16   288   288   288   288                        PRN / # OF OBS
          18   826   826   826   826                        PRN / # OF OBS
          19   844   844   844   844                        PRN / # OF OBS
          20    67    67    67    67                        PRN / # OF OBS
          21    75    75    75    75                        PRN / # OF OBS
          22   553   553   553   553                        PRN / # OF OBS
          25   329   329   329   329                        PRN / # OF OBS
          26   204   204   204   204                        PRN / # OF OBS
          27   669   669   669   669                        PRN / # OF OBS
          28   467   467   467   467                        PRN / # OF OBS
          29   766   766   766   766                        PRN / # OF OBS
                                                            END OF HEADER
 93 04 07 13 46 00.0000000  0  8 29 14 22 25 15 01 21 20
        -0.27018         0.23318  23497704.98718  23497705.00718
        -0.54518        -0.01918  22930990.16618  22930990.77518
         0.24718         0.16818  24305365.65218  24305367.89918
        -0.09919         0.23319  20361266.79319  20361266.44519
        -0.24918        -0.42118  20847817.80718  20847818.18818
         0.44618         0.30518  22820587.67418  22820588.62218
        -0.45618        -0.84818  23689347.25218  23689349.47418
        -0.62218        -0.15018  24769440.21518  24769443.00418
 93 04 07 13 48 00.0000000  0  8 29 14 22 25 15 01 21 20
   -377446.13208   -294113.54908  23425879.54308  23425879.59808
   -480337.01508   -374288.27208  22839585.22708  22839585.87108
   -486710.80808   -379255.24308  24212747.74008  24212749.97508
    -86264.90909    -67219.19509  20344851.13909  20344850.83409
   -111817.82308    -87131.11908  20826539.72908  20826540.15408
    130116.56208    101389.21908  22845348.09908  22845349.13408
    210381.48108    163932.62208  23729381.93808  23729384.38708
    -62346.69107    -48581.83308  24757576.38007  24757579.44708
 93 04 07 13 50 00.0000000  0  8 29 14 22 25 15 01 21 20
   -751832.86008   -585843.58308  23354636.09408  23354636.21108
   -958487.74308   -746873.34308  22748596.26308  22748596.81708
   -973163.42008   -758309.29608  24120179.02508  24120181.14308
   -162970.02509   -126989.51509  20330254.75609  20330254.46009
   -212611.13208   -165671.49408  20807359.52608  20807359.89908
    261566.81408    203817.71908  22870362.53008  22870363.58308
    425510.46708    331565.04508  23770320.01708  23770322.62508
   -115503.59908    -90003.06608  24747461.23208  24747464.28108
 93 04 07 13 52 00.0000000  0  8 29 14 22 25 15 01 21 20
  -1120372.30808   -873017.28208  23284505.34408  23284505.63508
  -1432005.79808  -1115848.53908  22658488.79708  22658489.50408
  -1456474.33408  -1134915.20908  24028208.08808  24028210.39708
   -227037.08909   -176912.00209  20318063.32409  20318063.02109
   -299714.09808   -233544.06608  20790784.49008  20790784.94008
    396877.64408    309254.42908  22896111.44808  22896112.67408
    647857.25708    504821.69708  23812631.51108  23812634.41208
   -156777.71108   -122165.06308  24739607.29108  24739610.43008
 93 04 07 13 54 00.0000000  0  8 29 14 22 25 15 01 21 20
  -1485133.45808  -1157246.81608  23215093.86708  23215093.99008
  -1903433.67908  -1483195.02808  22568779.16408  22568779.77408
  -1938772.55208  -1510732.10308  23936429.89908  23936431.96708
   -281344.10909   -219229.26409  20307729.10609  20307728.86209
   -375477.94508   -292580.96208  20776367.23108  20776367.68008
    533875.67608    416005.85508  22922181.59508  22922182.82208
    874817.29008    681673.07608  23855821.09508  23855824.04408
   -188493.68007   -146879.15308  24733572.01607  24733575.39708
 93 04 07 13 56 00.0000000  0  8 29 14 22 25 15 01 21 20
  -1848261.14108  -1440203.53608  23145993.04408  23145993.20608
  -2374025.73808  -1849890.22108  22479228.48908  22479229.14408
  -2421680.11308  -1887023.79108  23844535.61008  23844537.76008
   -327603.67709   -255275.79209  20298926.31709  20298926.05709
   -441759.15708   -344228.79608  20763754.38308  20763754.91208
    670732.58608    522647.28908  22948224.75008  22948226.18208
   1104934.77508    860984.78508  23899611.44308  23899614.38508
   -212477.04508   -165567.83008  24729008.58508  24729011.80908
 93 04 07 13 58 00.0000000  0  8 29 14 22 25 15 01 21 20
  -2210547.06208  -1722504.35908  23077052.29508  23077052.56708
  -2844313.40008  -2216348.24908  22389735.83108  22389736.61908
  -2905726.72808  -2264203.14608  23752424.87408  23752426.94208
   -366447.21509   -285543.60409  20291534.72309  20291534.46609
   -499330.80408   -389089.97008  20752799.04908  20752799.58108
    806707.67708    628601.58508  22974100.30208  22974101.59908
   1337629.66908   1042304.80708  23943892.40708  23943895.52908
   -229469.90708   -178809.41308  24725775.30908  24725778.57808
 93 04 07 14 00 00.0000000  0  8 14 29 22 25 15 01 21 20
  -3313583.16608  -2582013.08208  22300436.78708  22300437.64208
  -2570991.91108  -2003370.55908  23008462.03708  23008462.37108
  -3389942.95808  -2641514.60608  23660281.52108  23660283.83308
   -397115.31709   -309440.95309  20285698.86209  20285698.65209
   -547473.93508   -426604.24108  20743637.79208  20743638.42008
    942559.33908    734459.69908  22999952.27508  22999953.77108
   1572985.18408   1225698.05508  23988679.58108  23988682.83908
   -238722.55708   -186019.66008  24724014.70708  24724018.33808
 93 04 07 14 02 00.0000000  0  8 14 29 22 25 15 01 21 20
  -3781257.71408  -2946434.90108  22211441.45908  22211442.26508
  -2929309.67308  -2282579.29708  22940276.58408  22940276.84508
  -3873614.89608  -3018401.88208  23568241.92908  23568244.08408
   -419411.24909   -326814.52509  20281456.21009  20281456.02009
   -585736.02508   -456419.00308  20736356.84808  20736357.53608
   1078734.41308    840569.80808  23025865.84608  23025867.44508
   1811988.12108   1411933.42708  24034160.80308  24034164.21508
   -239747.88208   -186818.90708  24723819.83808  24723823.33008
 93 04 07 14 04 00.0000000  0  8 14 29 22 25 15 01 21 20
  -4246698.74608  -3309116.31708  22122870.97008  22122871.81508
  -3285400.74308  -2560052.86408  22872514.63008  22872514.87208
  -4356296.00308  -3394517.00908  23476390.78108  23476393.07508
   -433193.69709   -337554.20808  20278833.56509  20278833.44108
   -613937.64308   -478394.43408  20730990.43808  20730991.13108
   1215473.67708    947119.56708  23051886.69408  23051888.17908
   2054627.38608   1601002.25308  24080334.11308  24080337.62608
   -232332.05808   -181040.64908  24725231.25008  24725234.89908
 93 04 07 14 06 00.0000000  0  8 14 29 22 25 15 01 21 20
  -4709878.43608  -3670035.64408  22034730.89708  22034731.74208
  -3639077.59308  -2835645.08908  22805212.11008  22805212.37308
  -4837811.98708  -3769724.24708  23384761.26808  23384763.52108
   -438466.86009   -341663.28408  20277830.25409  20277830.14408
   -632181.86608   -492610.86208  20727518.75108  20727519.49008
   1352688.75208   1054040.06908  23077998.03008  23077999.78308
   2300751.53008   1792786.55708  24127170.49908  24127174.36108
   -216540.19908   -168735.53408  24728236.52708  24728240.32908
 93 04 07 14 08 00.0000000  0  8 14 29 22 25 15 01 21 20
  -5171257.23508  -4029551.67608  21946933.45508  21946934.33508
  -3990433.51108  -3109428.86408  22738351.21908  22738351.47508
  -5318033.81208  -4143923.12708  23293378.01608  23293380.37908
   -435174.15409   -339097.65808  20278456.88309  20278456.76008
   -640627.36808   -499191.91808  20725911.77608  20725912.52408
   1490432.08108   1161372.18608  23104209.96008  23104211.79308
   2550109.41108   1987090.63808  24174622.34408  24174626.33008
   -192493.64908   -149998.17908  24732812.68108  24732816.46408
 93 04 07 14 10 00.0000000  0  8 14 29 22 25 15 01 21 20
  -5630219.24008  -4387184.49008  21859595.97508  21859596.84308
  -4339281.33508  -3381258.34208  22671967.74308  22671967.96508
  -5796598.65808  -4516830.79808  23202310.17008  23202312.46908
   -423545.72309   -330036.66108  20280669.81709  20280669.74908
   -639202.62808   -498081.88608  20726183.03008  20726183.79908
   1628581.94408   1269021.09208  23130499.38708  23130501.13608
   2802872.98308   2184048.46408  24222722.20708  24222726.43608
   -160083.52408   -124743.78008  24738980.27108  24738984.14008
 93 04 07 14 12 00.0000000  0  8 14 29 22 25 15 01 21 20
  -6086053.50608  -4742380.11008  21772853.71808  21772854.56308
  -4685870.40808  -3651327.77308  22606014.03308  22606014.22108
  -6273294.03708  -4888281.77108  23111598.11808  23111600.49908
   -403904.10509   -314731.62708  20284407.58909  20284407.51708
   -627997.95508   -489351.12708  20728315.29008  20728316.12508
   1767556.61608   1377312.69808  23156945.65908  23156947.62708
   3059352.02308   2383901.43008  24271529.13108  24271533.68908
   -119358.65608    -93010.29708  24746730.06508  24746733.91708
 93 04 07 14 14 00.0000000  0  8 14 29 22 01 25 15 21 20
  -6539559.44808  -5095761.43008  21686554.42908  21686555.34208
  -5030277.41708  -3919696.90008  22540475.46608  22540475.76908
  -6748140.28208  -5258291.71708  23021237.99308  23021240.08408
   1906722.43908   1485753.25408  23183428.23508  23183430.20308
   -376302.36109   -293223.91008  20289660.15209  20289660.10708
   -607341.27608   -473255.16708  20732246.28208  20732247.11108
   3318984.33608   2586211.49008  24320936.32408  24320940.90008
    -70608.11008    -55023.03807  24756007.30108  24756010.96407
 93 04 07 14 16 00.0000000  0  8 14 29 22 01 25 15 21 20
  -6990713.11608  -5447309.80108  21600702.76608  21600703.69508
  -5372567.01508  -4186416.04908  22475339.96308  22475340.29108
  -7221027.46808  -5626775.18608  22931250.33408  22931252.59908
   2046218.26408   1594450.93608  23209973.70008  23209975.78208
   -340803.88709   -265562.89408  20296415.35109  20296415.40308
   -577439.34408   -449955.12508  20737936.53308  20737937.44308
   3581446.61808   2790726.63008  24370881.99508  24370886.72208
    -13995.67508    -10909.53907  24766780.35308  24766784.09407
 93 04 07 14 18 00.0000000  0  8 14 29 22 01 25 15 21 20
  -7439225.34108  -5796799.92408  21515353.76908  21515354.69408
  -5712810.78208  -4451541.09508  22410593.84108  22410593.98108
  -7691892.68208  -5993683.11008  22841647.70108  22841649.82608
   2185947.11008   1703330.17608  23236563.52508  23236565.77308
   -298033.80409   -232235.68308  20304554.29309  20304554.39208
   -538549.42708   -419651.46808  20745337.16208  20745338.16308
   3846504.57308   2997264.37807  24421321.42508  24421326.26107
     50264.60708     39163.31507  24779008.54808  24779012.56207
 93 04 07 14 20 00.0000000  0  8 14 29 22 01 21 25 15 20
  -7884387.44408  -6143679.55308  21430642.29608  21430643.33508
  -6050883.70108  -4714974.63408  22346260.71508  22346261.05008
  -8160130.45408  -6358543.67408  22752545.15008  22752547.12408
   2325959.10708   1812430.06508  23263207.15808  23263209.47008
   4114710.01407   3206254.52207  24472359.92107  24472365.17507
   -247575.44209   -192917.60508  20314156.32909  20314156.44308
   -490398.08908   -382131.11508  20754500.22308  20754501.15208
    122491.84008     95444.16307  24792753.12508  24792756.96807
 93 04 07 14 22 00.0000000  0  8 14 29 22 01 21 20 25 15
  -8326101.47408  -6487872.37708  21346586.96708  21346588.01608
  -6386767.44308  -4976702.28708  22282344.27008  22282344.45608
  -8625439.08708  -6721121.81308  22663999.69308  22664001.90008
   2466650.84408   1922059.60608  23289980.04708  23289982.45808
   4386166.59907   3417778.11707  24524017.26807  24524022.86407
    202696.12108    157940.94507  24808015.65808  24808019.35207
   -189052.98709   -147315.82108  20325292.89409  20325293.01008
   -433016.69608   -337418.48308  20765419.69508  20765420.61508
 93 04 07 14 24 00.0000000  0  8 14 29 22 01 21 20 25 15
  -8764393.76708  -6829398.90308  21263182.80208  21263183.81208
  -6720410.34808  -5236683.86808  22218854.22708  22218854.48808
  -9087600.50408  -7081247.59308  22576053.33108  22576055.54408
   2607765.41808   2032018.62708  23316833.69408  23316836.03208
   4660675.27207   3631680.05807  24576255.20507  24576261.00207
    290801.14007    226594.20707  24824781.23507  24824785.40207
   -122929.80309    -95791.40108  20337875.79709  20337875.99508
   -366529.72208   -285610.59608  20778071.78008  20778072.84308
 93 04 07 14 26 00.0000000  0  8 14 29 22 01 21 20 25 15
  -9199258.47108  -7168254.57108  21180430.84508  21180431.83108
  -7052011.80008  -5495074.71008  22155752.66608  22155752.78808
  -9546668.69908  -7438963.06708  22488695.48308  22488697.70608
   2749257.82608   2142272.07008  23343759.12108  23343761.61508
   4937847.93607   3847657.76107  24629000.31007  24629006.20707
    386451.42807    301126.97207  24842982.98407  24842986.85707
    -49588.16509    -38642.21608  20351832.34609  20351832.58208
   -291339.79108   -227021.19608  20792380.06208  20792381.18008
 93 04 07 14 28 00.0000000  0  8 14 29 22 01 21 20 25 15
  -9630676.67508  -7504424.65608  21098334.75708  21098335.77308
  -7381438.95608  -5751771.29508  22093064.75208  22093065.11208
 -10002364.61708  -7794050.74608  22401979.51508  22401981.62908
   2891225.57508   2252895.89808  23370774.99008  23370777.55308
   5217405.39507   4065493.54507  24682199.08907  24682205.43807
    489621.53208    381519.26707  24862615.54008  24862619.51307
     30702.39209     23921.71408  20367111.24509  20367111.50608
   -207517.81208   -161705.54308  20808330.97608  20808332.06808
 93 04 07 14 30 00.0000000  0  8 29 22 01 21 20 14 25 15
  -7708517.49308  -6006637.78208  22030823.90208  22030824.28608
 -10454269.52008  -8146184.35508  22315984.76808  22315986.87508
   3033879.63908   2364054.53108  23397921.49908  23397924.23808
   5499608.79407   4285391.26307  24735901.22907  24735908.00507
    600419.94407    467855.75507  24883699.72607  24883703.67407
 -10058106.04608  -7837486.55508  21016997.66808  21016998.70808
    118312.77809     92189.40508  20383783.06509  20383783.37208
   -115003.34108    -89616.51508  20825936.01908  20825937.21308
 93 04 07 14 32 00.0000000  0  8 29 22 01 21 20 14 25 15
  -8033436.28108  -6259821.34808  21968993.98408  21968994.32108
 -10902093.24708  -8495137.79108  22230766.69808  22230768.81008
   3177158.57108   2475700.03708  23425186.81208  23425189.70108
   5784935.94807   4507723.11707  24790198.00107  24790204.87907
    718825.55307    560119.90406  24906231.74507  24906235.55106
 -10481091.26908  -8167085.49108  20936506.30808  20936507.41608
    213188.69709    166118.54008  20401837.48709  20401837.76008
    -13869.44708    -10811.07108  20845181.34108  20845182.54108
 93 04 07 14 34 00.0000000  0  7 29 22 01 21 14 25 15
  -8356113.15408  -6511257.94208  21907590.69308  21907591.00908
 -11345760.53608  -8840852.44108  22146339.51308  22146341.61408
   3320730.34808   2587573.68508  23452507.99708  23452510.86108
   6072883.78807   4732097.05107  24844993.45307  24845000.44107
 -10900042.24008  -8493540.85208  20856782.69508  20856783.75408
    314869.05709    245349.83608  20421186.74009  20421187.06408
     95593.95808     74484.85208  20866011.72508  20866012.95108
 93 04 07 14 36 00.0000000  0  7 29 22 01 21 14 25 15
  -8676464.35708  -6760882.29708  21846629.84008  21846630.17308
 -11784840.69008  -9182992.71308  22062785.27108  22062787.33408
   3465364.22008   2700274.95308  23480031.25108  23480034.31408
   6363370.85507   4958449.67206  24900272.19607  24900279.30606
 -11314381.40008  -8816402.59108  20777936.58208  20777937.65308
    423618.81909    330089.75808  20441881.29009  20441881.62408
    213447.12208    166318.26308  20888438.62008  20888439.95008
 93 04 07 14 38 00.0000000  0  6 29 22 01 14 25 15
  -8994348.87808  -7008584.59208  21786138.60008  21786138.96608
 -12219079.71408  -9521360.69808  21980152.20508  21980154.27008
   3611039.81008   2813787.96108  23507752.69508  23507755.68908
 -11723941.65808  -9135540.48308  20699999.82208  20700000.97908
    539018.87608    420011.72208  20463841.26708  20463841.69108
    339568.55108    264594.48608  20912438.87908  20912440.19808
 93 04 07 14 40 00.0000000  0  6 29 22 01 14 25 15
  -9308955.11408  -7253732.37708  21726270.98708  21726271.52208
 -12647453.11708  -9855158.07608  21898635.38308  21898637.46108
   3758154.06908   2928422.00908  23535747.99908  23535751.17108
 -12127635.52908  -9450107.17808  20623179.47508  20623180.54108
    662180.78508    515981.87508  20487278.38508  20487278.78908
    474607.45408    369819.40008  20938136.06408  20938137.49508
 93 04 07 14 42 00.0000000  0  6 29 22 01 14 25 15
  -9620466.01608  -7496468.22208  21666992.53908  21666993.08208
 -13069962.28408 -10184385.91808  21818234.60408  21818236.59608
   3906725.77108   3044191.71608  23564020.53908  23564023.93508
 -12525691.94508  -9760281.05108  20547431.93408  20547433.08008
    792651.01908    617646.82808  20512106.13508  20512106.64008
    618182.53608    481695.85708  20965457.69508  20965459.17208
 93 04 07 14 44 00.0000000  0  6 29 22 15 01 14 25
  -9930188.21408  -7737810.25808  21608054.43208  21608054.94208
 -13487384.11608 -10509649.61508  21738801.81008  21738803.79608
    769134.87008    599320.81208  20994183.22008  20994184.71008
   4055856.41908   3160396.90808  23592399.44608  23592403.13708
 -12918574.14008 -10066423.06408  20472669.04708  20472670.14808
    929168.10408    724023.61408  20538084.59908  20538085.16608
 93 04 07 14 46 00.0000000  0  6 29 22 15 01 14 25
 -10238032.79808  -7977689.21208  21549473.57108  21549474.13208
 -13899626.30408 -10830877.22308  21660354.66308  21660356.51808
    927172.76308    722466.97108  21024257.01208  21024258.54708
   4205383.28208   3276910.80008  23620853.83308  23620857.65908
 -13306765.29508 -10368909.72008  20398798.72008  20398799.86808
   1071555.46508    834974.64308  20565180.17608  20565180.73608
 93 04 07 14 48 00.0000000  0  6 29 22 15 01 14 25
 -10543340.02608  -8215591.00708  21491375.65208  21491376.11908
 -14306041.68508 -11147564.46108  21583016.33908  21583018.21308
   1092556.09108    851336.83808  21055728.57608  21055730.24208
   4355939.38708   3394226.71308  23649504.32108  23649508.10408
 -13689475.82708 -10667125.75708  20325971.40108  20325972.52908
   1220301.52308    950880.49608  20593485.67508  20593486.26708
 93 04 07 14 50 00.0000000  0  7 29 22 15 01 18 14 25
 -10846281.28908  -8451649.20308  21433727.93708  21433728.41508
 -14706295.51208 -11459450.49008  21506850.53408  21506852.43308
   1265234.50608    985891.19408  21088588.42308  21088590.07608
   4507655.89508   3512446.81708  23678375.33308  23678379.32608
        -0.61716        -0.03316  24242593.01316  24242595.17116
 -14066118.23508 -10960613.39108  20254298.71008  20254299.87408
   1375028.04408   1071446.44508  20622929.20308  20622929.87908
 93 04 07 14 52 00.0000000  0  7 29 22 15 01 18 14 25
 -11146913.10108  -8685907.80508  21376519.57608  21376520.08108
 -15100096.65908 -11766308.46208  21431912.60908  21431914.51408
   1445110.26608   1126053.87408  21122817.83608  21122819.57708
   4660301.83708   3631391.14608  23707423.45908  23707427.31608
   -414838.18907   -323250.38606  24163652.25107  24163654.87406
 -14436856.71708 -11249500.56108  20183749.59908  20183750.74508
   1535750.63808   1196684.63608  20653513.96308  20653514.66208
 93 04 07 14 54 00.0000000  0  7 29 22 15 01 18 14 25
 -11444939.33308  -8918136.07708  21319807.11508  21319807.68308
 -15487301.58008 -12068026.53008  21358229.97308  21358231.80608
   1631939.11008   1271634.50908  21158370.36308  21158372.15408
   4813936.47708   3751105.85908  23736659.59808  23736663.74308
   -828258.27807   -645396.12907  24084981.31007  24084983.83707
 -14801544.92308 -11533673.22108  20114351.76508  20114352.94608
   1702285.91408   1326452.19608  20685204.74808  20685205.41708
 93 04 07 14 56 00.0000000  0  7 29 22 15 01 18 14 25
 -11740235.82008  -9148237.26208  21263614.08808  21263614.69608
 -15867479.75308 -12364269.20408  21285884.40908  21285886.19808
   1825763.22708   1422666.00508  21195254.06508  21195256.03308
   4969309.36908   3872175.03308  23766226.57008  23766230.80008
  -1240199.36407   -966389.43407  24006591.79007  24006594.24707
 -15159399.72509 -11812521.15908  20046254.32809  20046255.42608
   1874863.84108   1460928.30908  20718045.36708  20718046.17108
 93 04 07 14 58 00.0000000  0  7 29 22 15 01 18 14 25
 -12032841.07008  -9376241.37508  21207933.16908  21207933.81908
 -16240264.97208 -12654751.12808  21214945.74408  21214947.58108
   2026560.64308   1579131.23008  21233464.84108  21233466.79708
   5125854.06608   3994157.30907  23796016.53408  23796020.82307
  -1650223.69507  -1285889.07607  23928566.95007  23928569.32407
 -15510128.69309 -12085816.50608  19979512.84809  19979514.06508
   2053655.01708   1600245.90508  20752068.43608  20752069.20708
 93 04 07 15 00 00.0000000  0  7 29 22 15 01 18 14 25
 -12322173.46008  -9601695.22008  21152875.04408  21152875.67208
 -16605188.02908 -12939106.69608  21145503.14808  21145504.99708
   2234413.38508   1741094.11108  21273018.11108  21273020.16108
   5284348.93107   4117659.20607  23826177.46807  23826182.05707
  -2058205.10207  -1603796.82707  23850930.66307  23850933.34307
 -15853895.12609 -12353686.49208  19914096.31209  19914097.43908
   2238500.23008   1744280.94908  20787243.45808  20787244.24008
 93 04 07 15 02 00.0000000  0  7 29 22 15 01 18 14 25
 -12608415.75508  -9824741.21208  21098404.99708  21098405.58108
 -16962229.42608 -13217320.69908  21077560.39208  21077562.16408
   2448955.98208   1908269.85208  21313844.45108  21313846.58408
   5444525.73907   4242471.68307  23856658.52707  23856663.36607
  -2464111.50608  -1920087.69708  23773689.40808  23773692.00208
 -16190127.98309 -12615686.15908  19850113.32209  19850114.55708
   2429122.36308   1892817.47908  20823517.75108  20823518.61108
 93 04 07 15 04 00.0000000  0  7 29 15 01 18 14 22 25
 -12891857.91808 -10045605.28708  21044467.80408  21044468.48908
   2669844.98808   2080390.84408  21355878.42408  21355880.61808
   5606407.23707   4368612.47807  23887464.10907  23887468.97907
  -2868463.94208  -2235167.68008  23696743.74708  23696746.46108
 -16518864.31209 -12871844.38108  19787556.95509  19787558.16108
 -17311347.86808 -13489360.95808  21011125.22608  21011127.10008
   2625347.23408   2045719.76308  20860858.26608  20860859.19608
 93 04 07 15 06 00.0000000  0  6 15 18 14 29 22 25
   2896910.17608   2257324.42208  21399087.76808  21399090.06608
  -3271228.84008  -2549010.61008  23620100.35608  23620103.06308
 -16840262.15109 -13122284.30008  19726396.98409  19726398.20808
 -13172699.08508 -10264442.62208  20991025.63008  20991026.31308
 -17652331.95008 -13755062.76708  20946238.05808  20946239.93008
   2826925.64808   2202793.63208  20899217.48808  20899218.56608
 93 04 07 15 08 00.0000000  0  7 15 01 18 14 29 22 25
   3130217.44308   2439121.96808  21443484.97008  21443487.30608
        -0.26917         0.13017  23950015.85217  23950021.07117
  -3671733.19508  -2861092.09408  23543887.02208  23543889.83308
 -17153402.20209 -13366289.58408  19666808.47609  19666809.71608
 -13450286.64608 -10480744.66608  20938202.48208  20938203.11508
 -17984735.26008 -14014078.27408  20882983.76008  20882985.55608
   3034071.38108   2364205.65208  20938636.20508  20938637.32308
 93 04 07 15 10 00.0000000  0  7 25 15 01 18 14 29 22
   3246614.86608   2529823.70308  20979082.08208  20979083.21508
   3369553.69808   2625617.42608  21489029.30608  21489031.83608
    167583.97707    130584.67507  23981906.54607  23981912.02007
  -4070056.30508  -3171473.86208  23468088.89408  23468091.56208
 -17458713.35309 -13604194.43408  19608709.78709  19608710.99708
 -13724991.60208 -10694800.52408  20885927.88908  20885928.53208
 -18308393.05608 -14266279.10908  20821393.76608  20821395.49408
 93 04 07 15 12 00.0000000  0  7 25 15 01 18 14 29 22
   3464461.85008   2699574.34508  21020537.20608  21020538.38308
   3614587.97208   2816552.87708  21535658.06808  21535660.66008
    336821.60007    262457.55307  24014112.05707  24014117.10607
  -4466555.06808  -3480434.02608  23392637.63608  23392640.34708
 -17755845.28309 -13835725.87008  19552167.54609  19552168.79408
 -13996557.85708 -10906410.64608  20834250.56608  20834251.24208
 -18623262.80308 -14511632.10308  20761475.98608  20761477.78208
 93 04 07 15 14 00.0000000  0  7 25 15 18 01 14 29 22
   3686788.16708   2872815.37108  21062844.62608  21062845.89608
   3864660.85108   3011414.53008  21583245.65208  21583248.33008
  -4861742.37208  -3788372.23708  23317435.98008  23317438.88708
    507561.45406    395500.97906  24046603.05106  24046608.56906
 -18045086.31209 -14061108.52908  19497126.83609  19497128.06208
 -14265390.97408 -11115891.04308  20783093.42708  20783094.04608
 -18929631.43208 -14750360.83708  20703175.92908  20703177.75808
 93 04 07 15 16 00.0000000  0  6 25 15 18 14 29 22
   3913462.14108   3049444.15908  21105979.49808  21105980.87108
   4119437.48908   3209941.42408  21631728.31208  21631731.01308
  -5255502.95708  -4095198.69808  23242506.00908  23242508.74508
 -18326427.94309 -14280335.81108  19443589.29309  19443590.53608
 -14531989.20208 -11323629.98108  20732361.50508  20732362.21208
 -19227470.28808 -14982443.00108  20646499.07608  20646500.80108
 93 04 07 15 18 00.0000000  0  6 25 15 18 14 29 22
   4144244.56208   3229274.32408  21149896.05408  21149897.62408
   4378845.00008   3412076.77908  21681092.08308  21681094.99408
  -5647658.36408  -4400774.32208  23167881.21608  23167883.96608
 -18599657.41609 -14493241.94508  19391595.50409  19391596.80208
 -14796070.77808 -11529407.87908  20682108.52308  20682109.18308
 -19516488.15408 -15207651.66708  20591500.79808  20591502.47108
 93 04 07 15 20 00.0000000  0  6 25 15 18 14 29 22
   4379721.87208   3412762.82808  21194706.20608  21194707.69108
   4643383.34808   3618210.22508  21731432.34608  21731435.22708
  -6037702.94907  -4704705.07208  23093658.01607  23093660.91408
 -18863632.01409 -14698936.50008  19341362.85009  19341364.15008
 -15056946.77808 -11732687.91308  20632465.42808  20632466.12608
 -19795824.70908 -15425316.46308  20538344.80008  20538346.50008
 93 04 07 15 22 00.0000000  0  6 25 15 18 14 29 22
   4619516.55608   3599615.51908  21240337.92108  21240339.41308
   4912263.96908   3827727.24108  21782598.90008  21782601.96108
  -6426263.61008  -5007479.44208  23019717.52008  23019720.12608
 -19119423.27609 -14898254.41808  19292687.42809  19292688.76708
 -15314687.82508 -11933525.12908  20583419.00308  20583419.74608
 -20065918.40608 -15635779.04708  20486947.62608  20486949.31208
 93 04 07 15 24 00.0000000  0  6 25 15 18 14 29 22
   4862333.24908   3788823.00508  21286544.63508  21286546.33608
   5184364.65508   4039753.35808  21834378.33808  21834381.35608
  -6814275.85308  -5309826.53708  22945881.08208  22945883.63208
 -19367552.26309 -15091601.73008  19245470.14209  19245471.46108
 -15570802.72608 -12133095.22908  20534682.04708  20534682.79208
 -20327540.30608 -15839640.23808  20437162.67308  20437164.40208
 93 04 07 15 26 00.0000000  0  6 25 15 18 14 29 22
   5108992.74808   3981024.88008  21333482.63208  21333484.39908
   5460379.44908   4254829.44608  21886902.42308  21886905.63608
  -7200289.03608  -5610615.93508  22872425.15908  22872427.77808
 -19606909.11509 -15278113.60408  19199922.06709  19199923.41708
 -15824205.71008 -12330552.13508  20486461.09208  20486461.85408
 -20579656.53508 -16036094.42208  20389186.49308  20389188.19808
 93 04 07 15 28 00.0000000  0  6 25 15 18 14 29 22
   5359518.65208   4176239.52008  21381156.45308  21381158.18008
   5740449.25908   4473065.25308  21940198.34408  21940201.50608
  -7584611.42308  -5910087.92408  22799291.17608  22799293.54808
 -19836925.59309 -15457347.26008  19156151.42009  19156152.75408
 -16074573.98608 -12525644.34908  20438817.56308  20438818.36308
 -20821788.19208 -16224768.43408  20343110.36008  20343112.02108
 93 04 07 15 30 00.0000000  0  6 25 15 18 14 29 22
   5614125.52708   4374634.14908  21429606.78208  21429608.60708
   6024180.52408   4694154.11608  21994190.91308  21994194.23608
  -7967418.06708  -6208378.83108  22726445.34708  22726447.99808
 -20057524.54909 -15629242.61408  19114172.92409  19114174.24108
 -16322037.65108 -12718473.22208  20391726.91608  20391727.68808
 -21053998.33508 -16405711.38508  20298922.21808  20298923.96208
 93 04 07 15 32 00.0000000  0  6 25 15 18 14 29 22
   5872128.10208   4575674.76508  21478703.23708  21478705.37208
   6311310.48008   4917891.31508  22048830.26408  22048833.69908
  -8348244.98308  -6505127.11008  22653976.26208  22653979.17208
 -20268938.34609 -15793980.70409  19073942.24909  19073943.59709
 -16566526.59708 -12908984.14908  20345202.18608  20345202.99108
 -21276223.71808 -16578874.00708  20256634.15008  20256635.83408
 93 04 07 15 34 00.0000000  0  6 25 15 18 14 29 22
   6134631.17608   4780222.25208  21528656.28608  21528658.33608
   6602918.86108   5145118.18608  22104321.82208  22104325.32208
  -8726360.53008  -6799762.55308  22582023.36808  22582026.12708
 -20469725.68909 -15950438.42609  19035733.77109  19035735.13909
 -16806747.51508 -13096169.32108  20299489.75408  20299490.53908
 -21487070.39408 -16743170.10808  20216511.36408  20216513.05208
 93 04 07 15 36 00.0000000  0  6 25 15 18 14 29 22
   6402598.68308   4989027.72908  21579648.95208  21579651.30908
   6899501.99908   5376221.48908  22160760.10208  22160763.71708
  -9100617.52608  -7091391.40108  22510804.45108  22510807.43208
 -20658906.26209 -16097851.91409  18999733.94709  18999735.34809
 -17042102.84708 -13279563.12508  20254703.19008  20254703.94608
 -21685729.70708 -16897969.57108  20178707.79308  20178709.46408
 93 04 07 15 38 00.0000000  0  6 25 15 18 14 29 22
   6675059.10608   5201334.15008  21631496.85208  21631499.18708
   7200275.52108   5610589.99008  22217995.72808  22217999.51208
  -9471630.07408  -7380492.09408  22440203.33708  22440206.17408
 -20837313.14309 -16236870.32609  18965784.30609  18965785.71009
 -17273083.10908 -13459547.78808  20210749.14808  20210749.91608
 -21872682.54408 -17043647.12508  20143131.81808  20143133.57408
 93 04 07 15 40 00.0000000  0  6 25 15 18 14 29 22
   6951759.62208   5416944.54108  21684151.61508  21684153.97308
   7504839.76708   5847912.30108  22275952.70408  22275956.46308
  -9839819.31608  -7667392.77608  22370139.27708  22370141.94308
 -21004719.77109 -16367317.10909  18933927.90309  18933929.32109
 -17499994.33008 -13636361.78108  20167569.36908  20167570.23008
 -22048032.83108 -17180283.73408  20109763.80608  20109765.53108
 93 04 07 15 42 00.0000000  0  6 25 15 18 14 29 22
   7232356.10808   5635590.74208  21737547.66608  21737550.05608
   7812876.17908   6087940.17608  22334570.53408  22334574.55408
 -10205243.45108  -7952138.84608  22300601.44808  22300603.95208
 -21161135.86109 -16489199.84409  18904163.01009  18904164.43409
 -17722717.74608 -13809912.55408  20125186.63108  20125187.48808
 -22211809.83408 -17307902.20708  20078598.12908  20078599.85208
 93 04 07 15 44 00.0000000  0  7 25 15 19 14 18 29 22
   7516807.77908   5857240.97008  21791677.35308  21791679.82908
   8124153.93008   6330493.74608  22393805.08308  22393809.22308
        -0.41917        -0.36717  23306892.14317  23306897.19717
 -21306710.48609 -16602634.68709  18876461.16009  18876462.62009
 -10567895.61808  -8234724.93608  22231590.91608  22231593.59008
 -17941468.26408 -13980367.55708  20083559.80208  20083560.66508
 -22363966.91308 -17426466.20408  20049643.59508  20049645.37408
 93 04 07 15 46 00.0000000  0  7 25 15 19 14 18 29 22
   7804895.92708   6081724.77908  21846499.01708  21846501.70708
   8438527.72408   6575459.78408  22453628.85208  22453633.14908
   -435593.51607   -339423.47607  23224001.26507  23224006.35207
 -21440980.82009 -16707261.00009  18850910.38909  18850911.86709
 -10927492.08208  -8514929.98008  22163162.08608  22163164.61808
 -18155858.46208 -14147424.91608  20042762.81508  20042763.64108
 -22504375.18508 -17535875.27708  20022924.83508  20022926.64508
 93 04 07 15 48 00.0000000  0  7 25 15 19 14 18 29 22
   8096701.99708   6309105.68008  21902028.25108  21902030.93408
   8755479.44008   6822434.58308  22513943.20508  22513947.69108
   -866315.63808   -675050.97207  23142037.65108  23142042.49307
 -21564513.43409 -16803520.25409  18827403.04409  18827404.52709
 -11284655.30608  -8793238.96608  22095196.18408  22095198.70708
 -18366154.40008 -14311291.95708  20002744.86208  20002745.73308
 -22633287.88508 -17636326.78008  19998393.62408  19998395.37908
 93 04 07 15 50 00.0000000  0  7 25 15 14 19 18 29 22
   8391332.76108   6538687.60708  21958094.99308  21958097.83008
   9074446.07608   7070979.40408  22574641.02708  22574645.62708
 -21677262.15309 -16891376.47609  18805947.71409  18805949.23509
  -1292628.52708  -1007242.69407  23060912.91908  23060917.84307
 -11639572.49808  -9069797.80608  22027657.57608  22027660.36808
 -18573145.41008 -14472583.71608  19963355.83608  19963356.71808
 -22751015.15208 -17728062.36508  19975990.96308  19975992.67108
 93 04 07 15 52 00.0000000  0  7 25 15 14 19 18 29 22
   8688299.47308   6770089.73508  22014606.29708  22014609.22808
   9394980.75608   7320746.07208  22635637.13308  22635641.94908
 -21779670.13209 -16971174.98909  18786460.14209  18786461.71009
  -1714493.97308  -1335968.81207  22980634.35308  22980639.24907
 -11992572.15908  -9344862.42908  21960483.95108  21960486.55708
 -18776588.96608 -14631111.22308  19924641.93808  19924642.78608
 -22857755.35108 -17811236.60308  19955679.03408  19955680.72908
 93 04 07 15 54 00.0000000  0  7 25 15 19 14 18 29 22
   8988453.64108   7003975.60308  22071724.00508  22071727.15408
   9717343.93208   7571937.54508  22696981.16108  22696986.30408
  -2131474.84808  -1660888.78307  22901285.49008  22901290.15007
 -21871149.00809 -17042457.31109  18769052.36909  18769053.93209
 -12343014.46908  -9617934.31708  21893796.99708  21893799.69708
 -18976304.52108 -14786733.79908  19886637.31908  19886638.23808
 -22953008.49308 -17885459.87908  19937552.99908  19937554.69908
 93 04 07 15 56 00.0000000  0  7 25 15 19 14 18 29 22
   9291514.43408   7240126.34908  22129394.97108  22129398.20808
  10041721.26308   7824698.45008  22758708.74408  22758713.79308
  -2542829.39408  -1981424.61907  22823007.21808  22823011.87407
 -21951378.28409 -17104973.71509  18753785.36909  18753786.95409
 -12690661.30708  -9888827.92208  21827641.84908  21827644.64808
 -19171605.39708 -14938916.37408  19849472.88408  19849473.79008
 -23036362.65208 -17950411.22108  19921691.27808  19921692.99508
 93 04 07 15 58 00.0000000  0  7 25 15 19 14 18 29 22
   9597519.02508   7478570.95008  22187626.16108  22187629.48308
  10367896.34108   8078860.15408  22820778.34808  22820783.69408
  -2948780.86208  -2297750.29808  22745757.10308  22745761.82608
 -22020183.75909 -17158588.46109  18740692.17709  18740693.76409
 -13035440.99908 -10157487.43308  21762032.61608  21762035.24008
 -19362807.26908 -15087904.91308  19813088.43308  19813089.41408
 -23107810.53308 -18006084.95308  19908095.23508  19908096.98308
 93 04 07 16 00 00.0000000  0  7 25 15 19 14 18 29 22
   9905185.53208   7718310.55608  22246173.61708  22246176.86808
  10694632.11308   8333458.74107  22882954.76908  22882960.10907
  -3350501.60908  -2610779.25408  22669312.02408  22669316.68508
 -22078428.11909 -17203973.77909  18729608.75009  18729610.39609
 -13378477.50608 -10424788.63808  21696755.01008  21696757.72708
 -19550440.81408 -15234112.94708  19777383.02308  19777383.98408
 -23168380.99408 -18053282.78108  19896569.09708  19896570.88908
 93 04 07 16 02 00.0000000  0  7 18 25 15 14 19 29 22
 -13719744.61808 -10690711.09308  21631813.99708  21631816.74908
  10214581.58508   7959397.80008  22305050.13908  22305053.77808
  11021636.23307   8588266.40507  22945182.09107  22945187.53907
 -22126401.81109 -17241355.99109  18720479.73209  18720481.41109
  -3747707.37808  -2920290.07108  22593726.22808  22593730.62608
 -19735057.18708 -15377969.92308  19742251.72608  19742252.68708
 -23218162.97508 -18092074.02008  19887095.99908  19887097.76108
 93 04 07 16 04 00.0000000  0  7 18 25 15 19 14 29 22
 -14058407.57208 -10954604.29008  21567368.58608  21567371.18108
  10526484.74208   8202438.62808  22364403.76208  22364407.45908
  11349509.97707   8843751.63007  23007574.92207  23007580.74107
  -4139744.72808  -3225773.55308  22519123.95608  22519128.41308
 -22163217.00009 -17270043.26408  18713474.14309  18713475.82508
 -19915622.11208 -15518669.92608  19707891.48708  19707892.50108
 -23256362.69408 -18121840.11808  19879826.86708  19879828.67208
 93 04 07 16 06 00.0000000  0  7 18 25 15 19 14 29 22
 -14394368.95808 -11216392.37408  21503437.27708  21503440.03508
  10840295.76708   8446966.10808  22424120.47408  22424124.29008
  11678124.02307   9099813.70207  23070108.79807  23070114.72707
  -4526576.09308  -3527200.47208  22445512.16208  22445516.77708
 -22188729.41009 -17289923.16908  18708619.31109  18708621.01508
 -20091996.08108 -15656104.25408  19674328.66308  19674329.67508
 -23282925.66008 -18142538.61308  19874772.19208  19874773.94608
 93 04 07 16 08 00.0000000  0  7 18 25 15 19 14 29 22
 -14727792.46708 -11476202.87508  21439988.88608  21439991.58708
  11156323.13008   8693220.57308  22484258.90608  22484262.75608
  12007187.54007   9356225.94907  23132728.15307  23132734.35007
  -4908128.92008  -3824514.24208  22372904.99908  22372909.54808
 -22203147.38009 -17301158.07108  18705875.80809  18705877.54308
 -20264126.20108 -15790231.70208  19641573.44708  19641574.46908
 -23297968.29108 -18154260.23708  19871909.75408  19871911.51808
 93 04 07 16 10 00.0000000  0  7 18 25 15 19 14 29 22
 -15058415.50008 -11733831.20708  21377073.54908  21377076.08608
  11474703.33708   8941308.39108  22544845.45908  22544849.29508
  12336815.85607   9613078.24807  23195455.03807  23195461.46707
  -5284079.84308  -4117462.86108  22301363.91108  22301368.37508
 -22206142.98509 -17303492.43208  18705305.80309  18705307.56408
 -20431975.39308 -15921023.34808  19609632.87308  19609633.91308
 -23301209.06408 -18156785.61008  19871293.12008  19871294.98708
 93 04 07 16 12 00.0000000  0  7 18 25 15 19 14 29 22
 -15385732.52408 -11988883.42608  21314787.08808  21314789.71808
  11795641.43208   9191389.35908  22605918.35908  22605922.69108
  12667043.72007   9870397.67207  23258296.08707  23258302.64807
  -5654276.28508  -4405927.43208  22230917.63408  22230922.15008
 -22197204.03609 -17296527.14208  18707007.00909  18707008.78708
 -20595159.98508 -16048180.24708  19578579.96108  19578581.00308
 -23292462.91908 -18149970.55008  19872957.57208  19872959.46608
 93 04 07 16 14 00.0000000  0  7 18 25 15 19 14 29 22
 -15710230.19508 -12241738.75408  21253037.21208  21253039.97108
  12118368.27008   9442864.14208  22667331.91808  22667336.19308
  12997610.73407  10127981.36207  23321201.65907  23321208.49607
  -6018546.69208  -4689774.29508  22161599.18208  22161603.58608
 -22176652.95909 -17280513.44508  18710917.84509  18710919.68408
 -20753817.37608 -16171809.46208  19548388.52408  19548389.62008
 -23271840.07108 -18133900.92908  19876882.10608  19876883.96408
 93 04 07 16 16 00.0000000  0  6 18 19 25 14 29 22
 -16032109.36308 -12492553.69308  21191785.71608  21191788.30908
  -6377626.97008  -4969576.90908  22093268.40008  22093272.56908
  12442908.85708   9695752.25108  22729090.26108  22729094.96508
 -22145023.66909 -17255867.38308  18716936.85109  18716938.72508
 -20907814.12208 -16291807.00208  19519083.98908  19519085.06408
 -23239715.17608 -18108868.66508  19882995.29808  19882997.27708
 93 04 07 16 18 00.0000000  0  6 18 19 25 14 29 22
 -16350769.45908 -12740860.28308  21131146.82508  21131149.42408
  -6731243.04308  -5245121.72208  22025977.28608  22025981.63808
  12769547.98008   9950275.58208  22791248.08808  22791253.07908
 -22102017.74409 -17222356.42508  18725120.64809  18725122.51908
 -21056934.06108 -16408004.43408  19490707.42208  19490708.54808
 -23196049.08108 -18074843.26108  19891304.76608  19891306.84408
 93 04 07 16 20 00.0000000  0  7 18 19 25 15 14 29 22
 -16666770.16908 -12987094.59808  21071013.83908  21071016.40208
  -7079259.87508  -5516303.54308  21959751.83708  21959756.06808
  13097727.66708  10205999.31508  22853699.10808  22853704.23908
        -0.67417        -0.09716  23509641.02717  23509648.76116
 -22047665.53409 -17180004.22008  18735463.68409  18735465.65308
 -21202009.72008 -16521050.48708  19463100.55608  19463101.68808
 -23140887.65608 -18031860.46308  19901801.81808  19901803.81708
 93 04 07 16 22 00.0000000  0  7 19 25 15 14 29 22 18
  -7421575.22808  -5783042.66608  21894611.33908  21894615.54508
  13427561.98408  10463012.38108  22916465.00208  22916469.98408
    329084.30806    256428.59006  23572264.82906  23572272.37506
 -21982193.59709 -17128987.30108  18747922.78209  18747924.78008
 -21342520.67208 -16630539.63408  19436362.33108  19436363.45108
 -23074324.33008 -17979993.10208  19914468.55008  19914470.58108
 -16979684.31808 -13230923.79908  21011468.27908  21011470.85408
 93 04 07 16 24 00.0000000  0  6 19 25 29 14 22 18
  -7758226.23708  -6045368.03908  21830548.73008  21830552.85808
  13758668.09408  10721016.51608  22979473.06308  22979478.09308
 -21478188.90008 -16736255.22708  19410545.59508  19410546.74808
 -21905360.58609 -17069117.60008  18762543.75109  18762545.79008
 -22996554.42708 -17919393.34908  19929267.78208  19929269.85408
 -17289750.79808 -13472534.03108  20952464.63908  20952467.23808
 93 04 07 16 26 00.0000000  0  6 19 25 29 14 22 18
  -8089142.17108  -6303224.52708  21767577.35508  21767581.64808
  14091178.07908  10980114.63508  23042747.86308  23042753.17908
 -21609114.47608 -16838275.24508  19385631.32808  19385632.55608
 -21817212.08309 -17000430.63108  18779317.95009  18779320.03108
 -22907494.99708 -17849996.56508  19946215.38008  19946217.53408
 -17596673.53008 -13711694.61308  20894059.13008  20894061.79908
 93 04 07 16 28 00.0000000  0  6 19 25 29 14 22 18
  -8414981.86008  -6557125.49508  21705572.12908  21705576.38308
  14424810.73608  11240087.60308  23106236.46008  23106242.18708
 -21735427.16908 -16936700.81408  19361594.89208  19361596.12608
 -21718177.69409 -16923261.16108  18798163.78809  18798165.89108
 -22807482.17708 -17772064.67808  19965247.35408  19965249.52408
 -17900740.06008 -13948629.60408  20836197.25008  20836199.88808
 93 04 07 16 30 00.0000000  0  6 19 25 29 14 22 18
  -8735903.97808  -6807194.59608  21644502.66308  21644506.72508
  14759114.22407  11500583.36308  23169852.59107  23169858.32408
 -21857697.67608 -17031976.62608  19338327.65308  19338328.88708
 -21608713.83309 -16837964.83908  18818994.15909  18818996.34808
 -22697001.98408 -17685976.39708  19986271.17808  19986273.43008
 -18202358.17208 -14183656.73208  20778801.19308  20778803.90708
 93 04 07 16 32 00.0000000  0  7 19 25 28 29 14 22 18
  -9051605.49508  -7053195.69808  21584426.61808  21584430.58208
  15093953.22408  11761496.45908  23233570.81508  23233576.56508
        -0.45017        -0.30617  23928110.86617  23928121.16417
 -21975541.67108 -17123803.20708  19315902.81008  19315904.05408
 -21488760.05609 -16744494.56508  18841820.70109  18841822.92408
 -22576128.64908 -17591789.56708  20009272.72408  20009275.04808
 -18501485.94008 -14416743.33008  20721879.15908  20721881.87308
 93 04 07 16 34 00.0000000  0  7 19 25 29 14 22 18 28
  -9362182.67008  -7295203.83808  21525325.68908  21525329.73708
  15429385.11308  12022871.64507  23297401.27508  23297407.24107
 -22089112.00008 -17212299.66508  19294291.17008  19294292.44808
 -21358445.18809 -16642950.72308  18866619.02309  18866621.26908
 -22444890.96108 -17489526.62608  20034246.58008  20034248.90908
 -18797879.55608 -14647699.41008  20665477.26608  20665480.00708
   -290741.01607   -226550.69807  23872784.26707  23872794.36907
 93 04 07 16 36 00.0000000  0  7 19 25 28 29 14 22 18
  -9667517.54208  -7533127.07408  21467222.35408  21467226.40408
  15765522.43208  12284796.68207  23361366.27408  23361372.40507
   -580935.10507   -452675.37607  23817561.62807  23817571.64607
 -22197743.84208 -17296947.95908  19273619.29408  19273620.61708
 -21217279.99709 -16532952.09608  18893482.02009  18893484.31308
 -22303151.59708 -17379080.55708  20061218.84108  20061221.24408
 -19091446.56508 -14876452.94708  20609613.30208  20609616.07408
 93 04 07 16 38 00.0000000  0  7 19 25 28 29 14 22 18
  -9967320.81308  -7766739.95408  21410171.65308  21410175.74508
  16102556.84107  12547420.82307  23425502.00407  23425507.86007
   -869838.90607   -677794.71007  23762584.82507  23762594.58007
 -22301341.88008 -17377673.80708  19253905.35208  19253906.68308
 -21065588.60609 -16414751.24108  18922348.11909  18922350.47908
 -22150841.49108 -17260397.56708  20090202.71808  20090205.12208
 -19381693.05808 -15102619.07508  20554381.34108  20554384.09008
 93 04 07 16 40 00.0000000  0  7 19 25 28 29 14 22 18
 -10261911.93608  -7996291.45308  21354112.72408  21354116.86808
  16439997.27207  12810361.45107  23489714.59707  23489720.67407
  -1157784.04607   -902167.04607  23707790.32807  23707800.06907
 -22400439.45008 -17454892.79908  19235047.79808  19235049.15508
 -20903847.73009 -16288719.62508  18953126.57409  18953129.01508
 -21988372.56608 -17133798.63808  20121119.63708  20121122.10708
 -19669123.91308 -15326591.17908  20499685.05408  20499687.86808
 93 04 07 16 42 00.0000000  0  7 19 25 28 29 14 22 18
 -10551102.02208  -8221634.37008  21299081.86508  21299085.79908
  16778107.80507  13073824.36807  23554054.86707  23554060.76307
  -1444740.46407  -1125768.93507  23653183.89707  23653193.56707
 -22494592.45308 -17528258.88008  19217131.17708  19217132.54008
 -20731639.89409 -16154531.94408  18985896.81409  18985899.32108
 -21815982.08608 -16999468.64408  20153924.74208  20153927.21108
 -19953783.90508 -15548404.19208  20445516.13808  20445518.81508
 93 04 07 16 44 00.0000000  0  7 19 29 14 22 25 18 28
 -10835255.56608  -8443052.71508  21245009.22508  21245013.17008
 -22583864.91808 -17597821.93908  19200143.27308  19200144.66408
 -20549318.18209 -16012463.32908  19020591.64009  19020594.16908
 -21633753.13008 -16857472.29908  20188601.89708  20188604.49408
  17116355.76007  13337394.47707  23618421.14407  23618427.10607
 -20235444.78208 -15767880.22208  20391917.89308  20391920.59508
  -1730500.81108  -1348438.83207  23598805.24708  23598814.59407
 93 04 07 16 46 00.0000000  0  7 19 25 28 29 14 22 18
 -11114267.61408  -8660464.69908  21191915.01208  21191919.01108
  17455006.39207  13601278.45207  23682863.88307  23682869.78007
  -2014543.95908  -1569770.50308  23544753.05608  23544762.36708
 -22668293.97608 -17663610.91108  19184077.03608  19184078.44308
 -20356884.52708 -15862515.28008  19057210.79408  19057213.40108
 -21441578.61308 -16707726.17908  20225171.67308  20225174.38408
 -20513810.57508 -15984788.65608  20338946.59808  20338949.36308
 93 04 07 16 48 00.0000000  0  7 19 25 28 29 14 22 18
 -11388511.23508  -8874161.00308  21139728.29408  21139732.07308
  17793612.75207  13865127.96507  23747298.31407  23747304.11107
  -2297502.89508  -1790257.20408  23490907.25008  23490916.33708
 -22748053.53208 -17725761.32308  19168899.37808  19168900.84108
 -20154785.05808 -15705035.43408  19095669.21708  19095671.89108
 -21240179.14908 -16550791.80308  20263496.90508  20263499.67508
 -20789315.95508 -16199468.19408  20286519.72908  20286522.50308
 93 04 07 16 50 00.0000000  0  6 19 28 29 14 22 18
 -11658747.70008  -9084734.85108  21088303.87908  21088307.85008
  -2580027.30708  -2010405.28908  23437143.97508  23437152.78808
 -22824239.78908 -17785127.34808  19154401.71208  19154403.16608
 -19944682.16608 -15541319.15408  19135650.68708  19135653.39808
 -21030847.77008 -16387676.72608  20303331.56008  20303334.41708
 -21062962.51908 -16412699.30808  20234446.54608  20234449.27308
 93 04 07 16 52 00.0000000  0  6 19 28 29 14 22 18
 -11925739.60508  -9292780.47308  21037496.96108  21037500.97408
  -2862363.89408  -2230407.03608  23383416.62808  23383425.29608
 -22896735.84308 -17841617.89908  19140606.25108  19140607.75608
 -19726563.20508 -15371356.59508  19177157.51308  19177160.31008
 -20813873.74108 -16218606.34308  20344620.56708  20344623.48208
 -21334975.53408 -16624657.51708  20182684.18808  20182687.01608
 93 04 07 16 54 00.0000000  0  6 28 29 14 22 19 18
  -3144980.28508  -2450627.12008  23329635.99308  23329644.64208
 -22966413.95408 -17895912.65708  19127347.04208  19127348.58808
 -19500660.22308 -15195328.57408  19220145.64508  19220148.51908
 -20589868.42908 -16044057.04408  20387247.61508  20387250.60508
 -12189854.06108  -9498583.92608  20987237.66908  20987241.67108
 -21606195.19408 -16835997.52708  20131072.82808  20131075.59508
 93 04 07 16 56 00.0000000  0  6 28 29 14 22 19 18
  -3426871.27208  -2670281.93108  23275993.67408  23276002.09308
 -23032216.48608 -17947187.49308  19114825.36008  19114826.93808
 -19266818.66308 -15013114.66208  19264644.35908  19264647.29008
 -20358296.48808 -15863611.67908  20431314.49708  20431317.64108
 -12450023.53308  -9701313.34308  20937729.09108  20937732.81608
 -21875164.45208 -17045583.98208  20079889.70208  20079892.49608
 93 04 07 16 58 00.0000000  0  6 28 29 14 22 19 18
  -3707264.60508  -2888769.80908  23222636.10608  23222644.44008
 -23093913.67308 -17995263.34608  19103084.88308  19103086.46508
 -19025147.08908 -14824799.45708  19310633.19908  19310636.23008
 -20119043.35108 -15677180.97508  20476843.08608  20476846.34608
 -12706087.65908  -9900843.76908  20889001.62108  20889005.50808
 -22141713.51008 -17253284.57508  20029167.05208  20029169.87208
 93 04 07 17 00 00.0000000  0  6 28 29 14 22 19 18
  -3985482.56308  -3105562.52608  23169692.68108  23169700.86308
 -23150741.83808 -18039545.15608  19092270.93008  19092272.58608
 -18774997.64308 -14629878.12908  19358235.34208  19358238.43508
 -19871578.49208 -15484351.53308  20523934.32308  20523937.54908
 -12957525.09908 -10096768.93008  20841154.63208  20841158.48008
 -22405438.56708 -17458784.63708  19978982.01408  19978984.77408
 93 04 07 17 02 00.0000000  0  6 28 29 14 22 19 18
  -4263111.94908  -3321896.65508  23116861.22708  23116869.33808
 -23203719.55208 -18080826.62208  19082189.71908  19082191.37108
 -18517500.71508 -14429231.49608  19407235.60008  19407238.79808
 -19617388.29408 -15286281.55508  20572305.40208  20572308.56108
 -13206204.54308 -10290545.02808  20793832.37908  20793836.18108
 -22667186.97808 -17662744.46608  19929172.90808  19929175.66308
 93 04 07 17 04 00.0000000  0  6 28 29 14 22 19 18
  -4539061.82208  -3536922.09808  23064349.32708  23064357.20508
 -23253067.32208 -18119279.55508  19072799.25608  19072800.98008
 -18252654.53208 -14222858.17708  19457634.41608  19457637.65808
 -19356411.03508 -15082922.97708  20621967.92408  20621971.27608
 -13451408.04408 -10481612.62008  20747171.56008  20747175.44008
 -22926883.47108 -17865105.41608  19879754.34808  19879757.18708
 93 04 07 17 06 00.0000000  0  6 28 29 14 22 19 18
  -4813193.72108  -3750530.97208  23012183.52808  23012191.46008
 -23297844.30108 -18154170.83808  19064278.54108  19064280.27808
 -17980659.47208 -14010914.32108  19509393.64308  19509396.93608
 -19088509.83108 -14874169.12008  20672948.13608  20672951.42908
 -13692321.07808 -10669337.05608  20701327.41308  20701331.24908
 -23184095.12708 -18065530.11508  19830808.63808  19830811.44008
 93 04 07 17 08 00.0000000  0  7 28 27 29 14 22 19 18
  -5085910.25408  -3963036.96608  22960287.19208  22960294.98008
        -0.52417        -0.08517  23824584.73917  23824591.72417
 -23338775.11108 -18186065.10708  19056489.79808  19056491.54608
 -17701699.30308 -13793543.19008  19562478.26008  19562481.71108
 -18814425.64508 -14660597.37908  20725104.87908  20725108.24908
 -13930475.73608 -10854912.16508  20656008.13608  20656011.93108
 -23439067.10508 -18264209.61808  19782289.09108  19782291.93808
 93 04 07 17 10 00.0000000  0  7 28 27 29 14 22 19 18
  -5355549.27008  -4173144.87908  22908976.00808  22908983.70908
   -339827.29807   -264799.73307  23759917.23707  23759924.50407
 -23374304.96408 -18213750.83408  19049728.78008  19049730.58508
 -17414541.57508 -13569784.34708  19617122.80208  19617126.34608
 -18532733.64108 -14441097.46008  20778709.26508  20778712.89108
 -14163932.45208 -11036826.55708  20611582.80108  20611586.58208
 -23690458.13108 -18460098.77208  19734451.01608  19734453.88508
 93 04 07 17 12 00.0000000  0  7 28 27 29 14 22 19 18
  -5621364.10208  -4380272.89308  22858393.02908  22858400.51708
   -676993.08907   -527526.15307  23695756.70407  23695763.98207
 -23404129.62008 -18236990.95908  19044053.45308  19044055.26108
 -17119286.17708 -13339715.61508  19673308.43808  19673312.02008
 -18243324.70308 -14215584.37108  20833782.18908  20833785.97808
 -14392377.71508 -11214835.88408  20568111.18408  20568115.02908
 -23938040.94108 -18653020.47108  19687337.56108  19687340.45508
 93 04 07 17 14 00.0000000  0  7 28 27 29 14 22 19 18
  -5883996.23108  -4584920.94208  22808415.39808  22808422.90708
  -1012113.02907   -788658.44107  23631985.40307  23631992.58707
 -23428422.35908 -18255920.49408  19039430.78108  19039432.66008
 -16816831.38108 -13104036.92308  19730863.91608  19730867.62408
 -17947174.14008 -13984818.07108  20890138.13508  20890141.93708
 -14616543.13608 -11389510.31808  20525453.93808  20525457.88808
 -24182186.82808 -18843264.05408  19640878.16208  19640881.01908
 93 04 07 17 16 00.0000000  0  7 28 27 29 14 22 19 18
  -6144481.70308  -4787896.31007  22758846.45208  22758853.55607
  -1346178.13807  -1048968.83707  23568414.96407  23568422.05707
 -23448806.54308 -18271804.40208  19035551.89008  19035553.76308
 -16508381.92608 -12863687.08808  19789560.17008  19789563.95108
 -17645498.76208 -13749746.74008  20947545.35208  20947549.28008
 -14837452.01808 -11561647.11308  20483416.42008  20483420.29708
 -24423535.32608 -19031327.84608  19594951.11608  19594954.00008
 93 04 07 17 18 00.0000000  0  7 22 28 27 29 14 19 18
 -17337037.56208 -13509387.77508  21006243.83008  21006247.84808
  -6401309.91908  -4988021.86808  22709973.38908  22709980.49408
  -1678186.18207  -1307676.39907  23505235.79207  23505243.07507
 -23463496.98908 -18283251.63108  19032756.50908  19032758.46808
 -16192372.08708 -12617446.12408  19849695.25008  19849699.13808
 -15054350.02708 -11730658.56808  20442142.13008  20442146.00208
 -24660977.46808 -19216347.72308  19549767.41708  19549770.27508
 93 04 07 17 20 00.0000000  0  7 22 28 27 29 14 19 18
 -17022390.09008 -13264208.34408  21066119.56308  21066123.69908
  -6654837.69908  -5185575.61408  22661728.36108  22661735.48908
  -2008004.98207  -1564678.01907  23442473.38707  23442480.64707
 -23472856.33608 -18290544.76508  19030975.58408  19030977.51408
 -15869722.25308 -12366031.14108  19911093.84708  19911097.89208
 -15267127.17708 -11896458.98408  20401651.96108  20401655.93608
 -24894881.14608 -19398610.36008  19505257.10808  19505259.93808
 93 04 07 17 22 00.0000000  0  7 22 27 28 29 14 19 18
 -16703220.44608 -13015505.14408  21126855.88008  21126860.10508
  -2337231.20007  -1821217.79107  23379823.52407  23379830.65607
  -6905683.31308  -5381039.34208  22613993.69308  22614000.79408
 -23478308.92608 -18294793.66708  19029938.11008  19029940.10308
 -15542035.60008 -12110691.40908  19973450.95108  19973455.06708
 -15477242.59108 -12060185.30908  20361668.39608  20361672.28308
 -25126475.92808 -19579073.86308  19461186.00308  19461188.91208
 93 04 07 17 24 00.0000000  0  7 22 28 27 29 14 19 18
 -16379544.07208 -12763290.21808  21188449.65108  21188454.08108
  -7153983.67408  -5574519.76708  22566743.36308  22566750.49508
  -2666034.00507  -2077427.57307  23317254.38707  23317261.37907
 -23479878.78908 -18296017.07808  19029639.46008  19029641.47408
 -15209206.71308 -11851344.69008  20036786.51208  20036790.71808
 -15684636.46108 -12221790.93908  20322202.67408  20322206.67008
 -25355491.23308 -19757527.38208  19417605.91608  19417608.73908
 93 04 07 17 26 00.0000000  0  7 22 28 27 29 14 19 18
 -16050370.16408 -12506791.51208  21251089.76308  21251094.21408
  -7398548.21008  -5765089.17908  22520204.17808  22520211.15908
  -2993027.07007  -2332227.22907  23255029.57107  23255036.43607
 -23475949.29808 -18292955.27408  19030387.30208  19030389.33008
 -14870300.34208 -11587262.26208  20101278.59908  20101282.99808
 -15888335.16708 -12380517.20608  20283440.09108  20283444.04308
 -25580883.91208 -19933158.07308  19374715.11908  19374718.00408
 93 04 07 17 28 00.0000000  0  7 22 28 27 29 14 19 18
 -15716129.18908 -12246344.45208  21314694.09008  21314698.55608
  -7639253.38008  -5952651.31108  22474399.12208  22474406.06708
  -3318409.09107  -2585771.56707  23193111.18307  23193118.45007
 -23466942.57008 -18285937.17808  19032101.30908  19032103.45508
 -14525899.51008 -11318898.39808  20166816.16708  20166820.62208
 -16088661.92808 -12536615.99408  20245319.17908  20245323.21708
 -25802997.92508 -20106233.94708  19332448.24508  19332451.14408
 93 04 07 17 30 00.0000000  0  7 22 28 27 29 14 19 18
 -15375846.39308 -11981189.50908  21379448.14708  21379452.73408
  -7874529.76708  -6135983.24408  22429627.42408  22429634.25708
  -3641258.03107  -2837342.18807  23131675.29307  23131682.20407
 -23451385.04108 -18273814.56008  19035061.94908  19035064.03308
 -14175043.74408 -11045504.77908  20233582.15908  20233586.74608
 -16284295.19608 -12689057.54708  20208091.45508  20208095.39108
 -26019942.99908 -20275282.09108  19291165.01508  19291167.89808
 93 04 07 17 32 00.0000000  0  7 22 28 27 29 14 19 18
 -15030937.64508 -11712429.93708  21445082.32808  21445087.28708
  -8105528.85308  -6315982.22008  22385669.57108  22385676.30808
  -3962577.53908  -3087721.10207  23070530.38308  23070537.27207
 -23430417.73708 -18257476.53008  19039051.97508  19039054.15308
 -13818868.18808 -10767965.89508  20301360.59208  20301365.28208
 -16476337.89008 -12838701.22508  20171546.96008  20171550.91808
 -26232922.34508 -20441240.05408  19250636.42308  19250639.31808
 93 04 07 17 34 00.0000000  0  7 22 27 28 29 14 19 18
 -14680993.61408 -11439746.80308  21511674.87408  21511679.96908
  -4281779.10007  -3336449.76407  23009788.34107  23009795.40507
  -8331959.19308  -6492421.15308  22342580.95908  22342587.58508
 -23403688.64708 -18236648.80608  19044138.46608  19044140.67608
 -13456998.64908 -10485990.18008  20370222.44008  20370227.21808
 -16664536.27508 -12985349.36608  20135734.06308  20135738.07108
 -26441398.51308 -20603689.04608  19210964.73908  19210967.65408
 93 04 07 17 36 00.0000000  0  7 22 27 28 29 14 19 18
 -14327259.74508 -11164110.53408  21578988.58408  21578993.71008
  -4600238.53407  -3584600.12807  22949187.64107  22949194.87607
  -8554376.45808  -6665733.04208  22300256.13708  22300262.77608
 -23372081.77808 -18212020.21908  19050153.14708  19050155.36708
 -13090924.86508 -10200738.51508  20439884.38908  20439889.36508
 -16850045.19308 -13129901.77408  20100432.85408  20100436.78908
 -26646470.53708 -20763485.45508  19171940.87508  19171943.81908
 93 04 07 17 38 00.0000000  0  7 22 27 28 29 14 19 18
 -13968985.18408 -10884936.10408  21647166.37608  21647171.64008
  -4916570.68107  -3831092.72108  22888991.45607  22888998.78308
  -8771368.32108  -6834817.38308  22258963.86908  22258970.32308
 -23334567.65708 -18182788.58508  19057291.97708  19057294.22508
 -12719761.90308  -9911521.26608  20510514.80108  20510520.05108
 -17031716.19608 -13271463.59408  20065862.07008  20065865.99308
 -26847000.04209 -20919742.24108  19133781.40009  19133784.30508
 93 04 07 17 40 00.0000000  0  7 22 27 28 29 14 19 18
 -13606064.33208 -10602141.22908  21716228.34008  21716233.78508
  -5230949.50907  -4076063.21208  22829167.37607  22829174.42208
  -8983068.46708  -6999778.32808  22218678.31208  22218684.95108
 -23291168.11008 -18148970.89608  19065550.73508  19065553.02308
 -12343518.67408  -9618345.43308  20582112.11208  20582117.44808
 -17209295.25708 -13409836.90408  20032069.78408  20032073.80908
 -27042617.26509 -21072171.27008  19096556.66309  19096559.55208
 93 04 07 17 42 00.0000000  0  7 22 27 28 29 14 19 18
 -13239750.99408 -10316702.89408  21785935.90508  21785941.44208
  -5544071.43607  -4320054.27008  22769582.08007  22769589.17708
  -9190112.71008  -7161111.36108  22179279.00808  22179285.43708
 -23242389.15508 -18110961.46508  19074833.17708  19074835.45508
 -11963419.61208  -9322165.09108  20654443.20708  20654448.72908
 -17384261.06808 -13546173.88608  19998774.94608  19998778.94308
 -27234322.01709 -21221551.63008  19060076.47509  19060079.47108
 93 04 07 17 44 00.0000000  0  7 22 27 28 29 14 19 18
 -12870043.04608 -10028619.42708  21856289.63508  21856295.23908
  -5856038.45508  -4563145.42708  22710216.82808  22710223.96608
  -9392080.39808  -7318488.66708  22140845.88008  22140852.34008
 -23187857.02008 -18068469.02808  19085210.40108  19085212.75908
 -11579257.45908  -9022818.70608  20727547.38808  20727553.05608
 -17556404.12908 -13680311.38008  19966017.24908  19966021.22708
 -27421848.27109 -21367676.02008  19024391.49609  19024394.41108
 93 04 07 17 46 00.0000000  0  7 22 27 28 29 14 19 18
 -12496155.63808  -9737279.23808  21927438.46408  21927444.29708
  -6165904.76808  -4804599.69708  22651251.21108  22651258.37208
  -9588045.49708  -7471188.60108  22103554.69208  22103561.30808
 -23127173.59408 -18021183.38008  19096758.16908  19096760.56608
 -11190717.94908  -8720061.38708  20801484.48208  20801490.38108
 -17724308.70008 -13811146.14008  19934066.11908  19934070.07308
 -27603781.29409 -21509442.05308  18989770.80409  18989773.77808
 93 04 07 17 48 00.0000000  0  7 22 27 28 29 14 19 18
 -12117377.11508  -9442127.80508  21999518.20108  21999524.03908
  -6472433.67608  -5043453.37008  22592920.67508  22592927.75008
  -9776791.74808  -7618263.43008  22067637.38208  22067643.85908
 -23059227.72408 -17968238.69808  19109687.93808  19109690.37008
 -10796863.42308  -8413162.50808  20876433.06908  20876439.12208
 -17887330.05908 -13938175.77108  19903044.20308  19903048.13208
 -27779389.72809 -21646279.84608  18956353.64809  18956356.59308
 93 04 07 17 50 00.0000000  0  7 14 22 27 28 29 19 18
 -10398456.97008  -8102716.70608  20952247.89208  20952254.08308
 -11734702.61708  -9143940.53308  22072339.28208  22072345.26708
  -6776469.45608  -5280364.32608  22535064.65208  22535071.60608
  -9959006.33508  -7760248.62808  22032963.02108  22032969.41808
 -22984660.62208 -17910134.63808  19123877.73608  19123880.17808
 -18046381.88008 -14062112.23508  19872777.63008  19872781.61108
 -27949779.19809 -21779050.91608  18923929.66809  18923932.69308
 93 04 07 17 52 00.0000000  0  7 14 22 27 28 29 19 18
  -9997348.29208  -7790165.28508  21028576.89708  21028583.35308
 -11349802.21808  -8844018.79508  22145583.83908  22145590.09708
  -7080060.89708  -5516929.03708  22477293.02508  22477300.06108
 -10136306.86908  -7898404.68908  21999223.71008  21999229.99708
 -22904652.33408 -17847790.71508  19139102.95708  19139105.46608
 -18203166.61908 -14184282.17808  19842942.44108  19842946.45008
 -28115790.10609 -21908410.11308  18892338.92709  18892341.88008
 93 04 07 17 54 00.0000000  0  7 14 22 27 28 29 19 18
  -9592975.09708  -7475070.11208  21105527.24008  21105533.87708
 -10961807.11508  -8541685.62508  22219417.31508  22219423.71508
  -7381925.38608  -5752148.05208  22419850.09008  22419856.96508
 -10306989.07308  -8031403.62108  21966743.83008  21966750.24308
 -22818633.15008 -17780762.99808  19155472.04308  19155474.63008
 -18356665.41808 -14303891.64808  19813732.66008  19813736.65308
 -28276059.74709 -22033295.56608  18861840.62509  18861843.61508
 93 04 07 17 56 00.0000000  0  7 14 22 27 28 29 19 18
  -9185818.74708  -7157806.27608  21183007.12108  21183014.06108
 -10571466.12408  -8237524.47908  22293697.26108  22293703.70008
  -7682765.22308  -5986568.66508  22362602.04508  22362609.12408
 -10471879.05608  -8159889.14908  21935366.09308  21935372.46208
 -22726798.46208 -17709203.71508  19172947.76408  19172950.40108
 -18507348.39408 -14421306.93608  19785058.65208  19785062.62708
 -28431610.67409 -22154504.11008  18832240.30009  18832243.29908
 93 04 07 17 58 00.0000000  0  7 14 22 27 28 29 19 18
  -8775534.00008  -6838104.76408  21261082.34808  21261089.54908
 -10178396.43108  -7931237.05408  22368496.42808  22368503.06908
  -7981360.11808  -6219239.96908  22305781.21408  22305788.32908
 -10630164.04408  -8283227.94708  21905245.44508  21905251.62608
 -22628796.42808 -17632838.69608  19191597.10008  19191599.73708
 -18654688.51608 -14536117.42308  19757020.75408  19757024.73108
 -28581581.89609 -22271364.83208  18803701.75509  18803704.73808
 93 04 07 18 00 00.0000000  0  7 14 22 27 28 29 19 18
  -8363025.37808  -6516670.39808  21339580.85208  21339588.14208
  -9783152.28508  -7623255.26108  22443709.20508  22443716.17508
  -8278701.06608  -6450934.12908  22249199.20808  22249206.24108
 -10782061.65608  -8401589.61008  21876340.26608  21876346.24908
 -22524533.22608 -17551594.85208  19211437.85308  19211440.58708
 -18799015.45409 -14648579.97308  19729556.19709  19729560.16308
 -28726076.36609 -22383957.96408  18776205.37509  18776208.39308
 93 04 07 18 02 00.0000000  0  7 14 22 27 28 29 19 18
  -7948329.91108  -6193532.03908  21418495.51408  21418502.98408
  -9385930.12408  -7313732.14308  22519298.69308  22519305.79208
  -8575239.44508  -6682002.90508  22192769.75008  22192776.73608
 -10927540.44708  -8514949.65108  21848656.58608  21848662.50108
 -22414507.68308 -17465860.86908  19232375.20708  19232377.90608
 -18940728.04409 -14759005.32608  19702589.19009  19702593.14708
 -28865249.59309 -22492404.67508  18749721.59409  18749724.60008
 93 04 07 18 04 00.0000000  0  7 14 22 27 28 29 19 18
  -7531005.13208  -5868344.89908  21497910.58708  21497918.31708
  -8986329.94008  -7002356.00508  22595340.55208  22595347.99008
  -8869572.16608  -6911352.93308  22136760.08108  22136766.95508
 -11065614.70608  -8622539.91908  21822381.87508  21822387.85008
 -22298094.25008 -17375149.33008  19254528.11208  19254530.90708
 -19079066.40609 -14866801.45408  19676264.29209  19676268.32608
 -28998799.61909 -22596469.67808  18724307.95709  18724310.95808
 93 04 07 18 06 00.0000000  0  7 14 22 27 28 29 19 18
  -7110109.56408  -5540375.36108  21578005.07608  21578013.09508
  -8583559.03008  -6688509.16608  22671985.77808  22671993.41608
  -9161271.76608  -7138651.10508  22081251.34108  22081258.00608
 -11195582.09408  -8723813.13108  21797649.82908  21797655.90508
 -22174155.04808 -17278573.55408  19278113.13008  19278115.98708
 -19213041.73609 -14971197.85708  19650769.62809  19650773.67608
 -29124940.40609 -22694761.25808  18700304.15809  18700307.20408
 93 04 07 18 08 00.0000000  0  7 14 29 22 27 19 18 28
  -6686523.16408  -5210309.11008  21658611.71208  21658620.08508
 -22043012.15208 -17176384.54208  19303068.99808  19303071.91608
  -8178175.02607  -6372626.10808  22749128.09607  22749135.92008
  -9450530.64008  -7364047.38608  22026206.98908  22026213.74208
 -19342923.42709 -15072404.41008  19626054.02109  19626058.04408
 -29244079.04309 -22787596.62208  18677632.91609  18677635.95808
 -11317565.32208  -8818864.94208  21774437.21708  21774443.23108
 93 04 07 18 10 00.0000000  0  8 14 29 22 27 11 19 18 28
  -6260641.90008  -4878454.70608  21739654.99008  21739663.55408
 -21904951.64908 -17068805.19108  19329341.19708  19329344.18408
  -7770736.36907  -6055142.01508  22826661.58507  22826669.44108
  -9737754.51108  -7587857.89208  21971549.81108  21971556.63608
        -0.92917        -0.72817  23725905.23317  23725920.99517
 -19469628.27009 -15171135.49408  19601942.97009  19601946.96208
 -29356913.44909 -22875519.59208  18656161.28609  18656164.34108
 -11431924.24408  -8907975.73808  21752675.37008  21752681.38408
 93 04 07 18 12 00.0000000  0  8 14 29 22 27 11 19 18 28
  -5833506.78308  -4545623.31208  21820936.98508  21820945.78808
 -21761029.78208 -16956658.54608  19356728.85008  19356731.92608
  -7362088.11008  -5736715.33908  22904425.21208  22904433.10708
 -10023605.17508  -7810598.43608  21917154.00908  21917160.76708
   -338030.25407   -263398.76607  23661579.44207  23661595.02207
 -19593785.32809 -15267881.30508  19578316.66009  19578320.66808
 -29463670.89709 -22958707.27108  18635846.04709  18635849.12008
 -11539275.96208  -8991626.39708  21732246.84008  21732252.94708
 93 04 07 18 14 00.0000000  0  8 14 29 22 27 11 19 18 28
  -5405351.29808  -4211996.86508  21902413.19608  21902422.31908
 -21610821.85908 -16839613.68008  19385312.65708  19385315.75608
  -6952228.52708  -5417344.69208  22982419.32908  22982427.42008
 -10308033.33108  -8032230.57508  21863029.04508  21863035.68908
   -676733.00007   -527321.47107  23597125.30007  23597140.43607
 -19714967.50809 -15362309.03908  19555256.51209  19555260.55408
 -29564059.17809 -23036931.95808  18616742.82709  18616745.90808
 -11639058.34408  -9069378.84908  21713258.93508  21713264.94908
 93 04 07 18 16 00.0000000  0  8 14 29 22 27 11 19 18 28
  -4975784.52408  -3877270.77408  21984157.98308  21984167.40308
 -21454390.52208 -16717719.39708  19415080.77408  19415083.95308
  -6541197.93807  -5097061.51708  23060636.19007  23060644.26608
 -10590928.03608  -8252667.85408  21809195.96908  21809202.43408
  -1015794.68108   -791523.95907  23532602.92708  23532617.67207
 -19833198.20309 -15454436.87008  19532757.97909  19532761.99408
 -29658094.01809 -23110205.90208  18598848.65309  18598851.71808
 -11731273.97808  -9141235.10608  21695710.78208  21695716.92308
 93 04 07 18 18 00.0000000  0  8 29 14 22 27 11 19 18 28
 -21290733.16108 -16590194.47808  19446223.92908  19446227.19108
  -4544717.47808  -3541375.68408  22066188.26708  22066198.04108
  -6128575.92607  -4775538.21208  23139155.82607  23139163.85508
 -10872039.41208  -8471715.49708  21755702.07108  21755708.54508
  -1354438.19508  -1055400.67407  23468160.11308  23468174.57907
 -19947862.91109 -15543786.01608  19510938.00209  19510942.04708
 -29745476.27309 -23178296.02809  18582220.41609  18582223.48609
 -11815510.20108  -9206873.65608  21679681.12908  21679687.11208
 93 04 07 18 20 00.0000000  0  8 29 14 22 27 11 19 18 28
 -21120677.08708 -16457683.55608  19478584.76008  19478588.08508
  -4112780.06608  -3204802.45508  22148384.24908  22148394.36408
  -5714945.95808  -4453229.33108  23217867.27608  23217875.19708
 -11151632.49808  -8689580.02008  21702496.99908  21702503.55908
  -1692889.88108  -1319128.02207  23403753.85408  23403768.27707
 -20059727.46909 -15630953.23808  19489650.87409  19489654.90408
 -29825694.22209 -23240803.57909  18566955.47309  18566958.56409
 -11891607.67908  -9266170.36308  21665200.26108  21665206.32908
 93 04 07 18 22 00.0000000  0  8 29 14 22 27 11 19 18 28
 -20942683.10708 -16318987.26808  19512456.15908  19512459.54108
  -3678292.01908  -2866241.78908  22231065.73308  22231076.20308
  -5298976.33708  -4129097.21708  23297023.68508  23297031.70308
 -11427846.27808  -8904811.36608  21649935.21108  21649941.60208
  -2029462.78508  -1581391.40408  23339705.27108  23339719.26708
 -20167095.13709 -15714616.36508  19469219.54709  19469223.60708
 -29897517.60209 -23296769.91409  18553287.99209  18553291.08609
 -11957976.81208  -9317886.56808  21652570.68108  21652576.62208
 93 04 07 18 24 00.0000000  0  8 29 14 22 27 11 19 18 28
 -20756621.69508 -16174004.67208  19547862.71308  19547866.18408
  -3242089.92108  -2526345.55508  22314073.29108  22314084.10108
  -4880991.27808  -3803394.50508  23376563.47008  23376571.50308
 -11701196.00708  -9117810.96708  21597918.38008  21597924.75208
  -2364127.48008  -1842167.93308  23276019.94608  23276033.62708
 -20270409.19509 -15795120.84708  19449559.54509  19449563.63608
 -29961126.49209 -23346335.34109  18541183.63809  18541186.77109
 -12015018.03108  -9362334.28108  21641715.98608  21641721.96208
 93 04 07 18 26 00.0000000  0  8 29 14 22 27 11 19 18 28
 -20563044.24608 -16023165.44408  19584699.54308  19584703.14708
  -2804290.19808  -2185204.49608  22397385.15808  22397396.36708
  -4461337.43708  -3476391.36608  23456420.67708  23456428.77108
 -11971804.62808  -9328674.64208  21546423.07208  21546429.43508
  -2696876.90508  -2101452.02707  23212698.94208  23212712.25107
 -20369738.41609 -15872520.26608  19430657.83709  19430661.92108
 -30016979.79809 -23389857.46208  18530555.19009  18530558.30508
 -12062801.85408  -9399568.47908  21632623.09008  21632629.07008
 93 04 07 18 28 00.0000000  0  8 14 29 22 27 11 19 18 28
  -2365709.10708  -1843454.65608  22480845.61308  22480857.07408
 -20362517.97608 -15866911.55808  19622858.68508  19622862.35108
  -4040522.70307  -3148483.50808  23536498.94907  23536506.87408
 -12239918.49308  -9537594.36208  21495402.59108  21495408.80708
  -3027865.30108  -2359363.91008  23149713.01008  23149726.28408
 -20465271.14809 -15946961.40408  19412478.63909  19412482.73608
 -30064971.80909 -23427253.91109  18521422.69409  18521425.85009
 -12101586.77808  -9429790.56208  21625242.76308  21625248.71908
 93 04 07 18 30 00.0000000  0  8 29 14 22 27 11 19 18 28
 -20155132.20408 -15705312.62808  19662323.15708  19662326.94108
  -1926882.52208  -1501513.63407  22564352.92008  22564364.90007
  -3619257.20508  -2820224.14407  23616662.75108  23616670.47607
 -12506198.00808  -9745084.62508  21444731.05108  21444737.31808
  -3357455.08208  -2616186.02008  23086993.29708  23087006.32708
 -20557894.47809 -16019135.45308  19394853.03809  19394857.12608
 -30105406.73309 -23458761.71708  18513728.23709  18513731.38708
 -12131972.44208  -9453467.76708  21619460.53508  21619466.54808
 93 04 07 18 32 00.0000000  0  8 14 29 22 27 11 19 18 28
  -1488113.83108  -1159617.80507  22647849.22008  22647861.52407
 -19941146.09908 -15538570.61308  19703043.68008  19703047.50108
  -3197654.39208  -2491701.79307  23696890.69408  23696898.14107
 -12771290.87408  -9951650.22408  21394285.42108  21394291.73508
  -3685409.51708  -2871733.90907  23024584.97208  23024597.48607
 -20647287.15509 -16088792.10808  19377842.17609  19377846.31008
 -30138382.74809 -23484457.39708  18507453.17209  18507456.32408
 -12153778.61608  -9470459.68108  21615310.90308  21615316.79208
 93 04 07 18 34 00.0000000  0  8 27 29 14 22 11 19 18 28
 -13034430.35308 -10156693.68908  21344211.38408  21344217.57208
 -19720507.18608 -15366644.61208  19745030.20308  19745034.17308
  -1049341.00307   -817718.92107  22731346.21407  22731359.35207
  -2775720.53708  -2162921.26307  23777181.24808  23777188.66607
  -4011385.73808  -3125740.45707  22962553.14708  22962565.26707
 -20733637.89609 -16156078.41708  19361410.21409  19361414.36608
 -30163703.42709 -23504187.89108  18502634.92409  18502638.14308
 -12166770.56108  -9480583.38608  21612838.74008  21612844.80208
 93 04 07 18 36 00.0000000  0  8 27 29 14 22 11 19 18 28
 -13295658.44608 -10360247.75308  21294501.06708  21294507.27308
 -19493407.47308 -15189684.24008  19788246.18908  19788250.23308
   -611249.19507   -476350.84007  22814713.70607  22814727.74407
  -2354014.58107  -1834318.28707  23857428.52707  23857435.75307
  -4335599.78508  -3378373.96207  22900856.72108  22900868.63907
 -20817460.14109 -16221394.48008  19345459.40309  19345463.50308
 -30181831.70109 -23518313.91708  18499185.31709  18499188.51008
 -12171553.35108  -9484310.35508  21611928.69808  21611934.67508
 93 04 07 18 38 00.0000000  0  8 27 29 14 22 11 19 18 28
 -13555336.38508 -10562593.96108  21245085.84408  21245091.89608
 -19259949.19208 -15007769.13508  19832672.10808  19832676.31508
   -173559.04607   -135295.88907  22898005.33807  22898019.57707
  -1932403.13307  -1505788.83107  23937657.82307  23937664.67007
  -4657573.78008  -3629262.03208  22839586.35908  22839598.43308
 -20898550.52609 -16284581.82208  19330028.40109  19330032.59708
 -30192379.25209 -23526532.88808  18497178.23409  18497181.47308
 -12167542.59408  -9481185.21108  21612692.17908  21612698.18508
 93 04 07 18 40 00.0000000  0  8 27 29 14 22 11 19 18 28
 -13813376.31108 -10763663.83308  21195982.40708  21195988.28308
 -19019830.59508 -14820664.19608  19878365.46108  19878369.80708
    263685.66307    205411.93107  22981212.25807  22981226.70207
  -1510726.69707  -1177208.81907  24017899.47807  24017905.96907
  -4976810.08108  -3878016.85208  22778837.23108  22778848.91108
 -20976480.52509 -16345306.55008  19315198.89309  19315203.14408
 -30194959.07809 -23528543.24908  18496687.41309  18496690.63408
 -12154412.86808  -9470954.38008  21615190.69008  21615196.76408
 93 04 07 18 42 00.0000000  0  7 27 14 29 11 19 18 28
 -14070082.60908 -10963694.57508  21147132.60408  21147138.64608
    699549.15507    545043.36307  23064156.30207  23064171.23007
 -18773865.32808 -14629003.41908  19925171.45708  19925175.90808
  -5293741.39608  -4124975.49808  22718526.58008  22718538.03808
 -21051828.20309 -16404019.07108  19300860.64609  19300864.84808
 -30190136.03209 -23524785.13208  18497605.26409  18497608.53008
 -12132985.51908  -9454257.85208  21619268.16808  21619274.33408
 93 04 07 18 44 00.0000000  0  8 27 14 29 02 11 19 18 28
 -14325141.51108 -11162441.64208  21098596.48708  21098602.30808
   1134384.01107    883873.25407  23146904.39807  23146920.12707
 -18521407.67908 -14432283.66108  19973212.95308  19973217.50508
        -0.63618        -0.85517  22810209.39518  22810220.07117
  -5607763.07008  -4369666.97208  22658769.52208  22658781.22808
 -21124284.43509 -16460478.50408  19287072.75009  19287076.91408
 -30177561.11009 -23514986.60008  18499998.28309  18500001.56808
 -12102726.72408  -9430679.71608  21625026.45508  21625032.57908
 93 04 07 18 46 00.0000000  0  8 27 14 29 02 11 19 18 28
 -14578389.37508 -11359777.47008  21050404.89608  21050410.85808
   1568173.25507   1221888.24907  23229453.60307  23229470.03207
 -18262214.67108 -14230315.57308  20022536.11908  20022540.73108
   -371594.35408   -289553.72208  22739497.01308  22739507.39208
  -5918682.33808  -4611941.13108  22599603.32408  22599614.54808
 -21193785.61509 -16514635.30208  19273847.18309  19273851.39908
 -30157297.51809 -23499196.90808  18503854.43109  18503857.73608
 -12063803.45708  -9400350.04608  21632433.30708  21632439.58308
 93 04 07 18 48 00.0000000  0  8 28 14 02 29 27 11 19 18
 -12016472.33508  -9363468.82008  21641440.24108  21641446.52008
   2000043.81607   1558408.21107  23311637.58407  23311655.08207
   -740893.43308   -577318.66108  22669221.57808  22669231.60908
 -17997429.51508 -14023989.99908  20072923.48808  20072928.23008
 -14830107.21308 -11555921.05608  21002504.46208  21002510.36708
  -6226607.52908  -4851882.13708  22541006.57008  22541017.55808
 -21260883.66809 -16566919.54608  19261078.93409  19261083.14608
 -30129201.77909 -23477304.25308  18509200.95209  18509204.27208
 93 04 07 18 50 00.0000000  0  8 28 14 02 29 27 11 19 18
 -11960447.44908  -9319813.26608  21652101.59208  21652107.92908
   2429762.00407   1893250.90207  23393412.17907  23393430.36907
  -1107660.54708   -863110.63708  22599427.48408  22599437.76308
 -17726857.61708 -13813155.31408  20124412.05808  20124416.87208
 -15080876.87308 -11751325.83908  20954784.46408  20954790.14208
  -6531412.14408  -5089391.33408  22483003.51608  22483014.32108
 -21325875.76109 -16617562.76908  19248711.35209  19248715.56708
 -30093617.09009 -23449576.06808  18515972.63209  18515975.97308
 93 04 07 18 52 00.0000000  0  8 14 02 11 29 27 19 18 28
   2858279.09807   2227157.66207  23474958.22507  23474976.72207
  -1471227.78008  -1146409.14808  22530242.52408  22530252.39308
  -6832388.94308  -5323917.73408  22425728.82608  22425739.38308
 -17449851.97908 -13597307.34708  20177124.94108  20177129.97308
 -15330155.73008 -11945568.96908  20907348.20408  20907353.92308
 -21387929.14909 -16665916.10408  19236903.04909  19236907.24508
 -30049945.72709 -23415546.58708  18524283.10609  18524286.51608
 -11895599.00308  -9269282.22908  21664442.12808  21664448.53208
 93 04 07 18 54 00.0000000  0  7 02 11 19 29 27 18 28
  -1831449.14008  -1427100.43408  22461694.10908  22461703.82708
  -7129272.10108  -5555254.35607  22369233.05308  22369243.31307
 -21446879.19009 -16711851.24708  19225685.24409  19225689.48808
 -17166753.06208 -13376711.38108  20230997.16508  20231002.44208
 -15577539.77908 -12138335.60308  20860272.44608  20860278.12208
 -29998256.27909 -23375269.26108  18534119.41709  18534122.85408
 -11821683.82608  -9211686.21908  21678507.86408  21678514.32408
 93 04 07 18 56 00.0000000  0  8 16 02 11 29 27 19 18 28
        -0.33617        -0.61617  23249796.09317  23249806.32317
  -2188323.03408  -1705183.33108  22393782.69308  22393792.35008
  -7421594.45508  -5783037.13308  22313605.33108  22313615.47108
 -16877091.75108 -13151001.86308  20286118.35208  20286123.86208
 -15823018.47408 -12329617.53108  20813559.23608  20813565.01408
 -21502670.86409 -16755325.31808  19215068.49509  19215072.72608
 -29938215.10609 -23328484.10108  18545544.99809  18545548.49708
 -11738829.16308  -9147124.37008  21694274.69208  21694281.26908
 93 04 07 18 58 00.0000000  0  8 16 02 11 19 29 27 18 28
   -274358.79007   -213786.34607  23197587.41407  23197597.56007
  -2541449.27408  -1980345.97308  22326584.31608  22326593.88508
  -7709204.05908  -6007147.77908  22258874.55108  22258884.44108
 -21555331.06109 -16796359.28208  19205047.62509  19205051.90408
 -16581192.54608 -12920431.66908  20342426.63608  20342432.26908
 -16066302.97808 -12519189.67908  20767263.53808  20767269.22408
 -29869552.67909 -23274981.07908  18558611.13509  18558614.70008
 -11646948.00308  -9075528.85308  21711759.32108  21711765.87608
 93 04 07 19 00 00.0000000  0  8 16 02 11 19 29 27 18 28
   -542364.61808   -422621.94608  23146587.66708  23146597.68208
  -2891632.62808  -2253215.47908  22259946.24308  22259955.66408
  -7992561.70908  -6227945.31308  22204952.84508  22204962.73208
 -21605690.43209 -16835600.41308  19195464.53909  19195468.81808
 -16279956.03208 -12685702.55008  20399750.52408  20399756.21008
 -16308215.31908 -12707692.66108  20721229.13008  20721234.68008
 -29793295.44509 -23215560.02308  18573122.54509  18573126.06308
 -11546602.05508  -8997337.42308  21730854.57308  21730861.20408
 93 04 07 19 02 00.0000000  0  8 16 02 11 19 29 27 18 28
   -804045.85808   -626529.33707  23096791.17308  23096801.14807
  -3238871.40908  -2523790.55308  22193868.63908  22193877.74108
  -8271698.17308  -6445453.71708  22151834.58808  22151844.29308
 -21654152.41909 -16873363.06108  19186242.65509  19186246.93708
 -15973246.19108 -12446708.53608  20458115.91708  20458121.84008
 -16549274.48408 -12895530.86408  20675357.07808  20675362.63008
 -29709612.98309 -23150353.07008  18589046.94409  18589050.53408
 -11437987.83708  -8912703.19708  21751523.58808  21751530.22608
 93 04 07 19 04 00.0000000  0  8 16 02 11 19 18 29 27 28
  -1059310.67108   -825436.92907  23048215.92408  23048225.81407
  -3583444.52808  -2792288.58208  22128298.12008  22128307.20708
  -8546290.31408  -6659421.14908  22099581.04908  22099590.66108
 -21700300.56209 -16909322.70108  19177461.00109  19177465.31808
 -29617953.61609 -23078930.35408  18606489.29109  18606492.88008
 -15661356.63108 -12203678.40908  20517467.13108  20517473.15208
 -16789224.03208 -13082504.41808  20629696.11908  20629701.62708
 -11321282.71708  -8821764.37908  21773731.84708  21773738.58708
 93 04 07 19 06 00.0000000  0  8 16 02 11 19 18 29 27 28
  -1307403.67908  -1018756.08908  23001005.46208  23001015.28308
  -3924516.43908  -3058058.44908  22063393.96608  22063402.83408
  -8815651.67908  -6869312.67908  22048322.88008  22048332.43808
 -21743384.14609 -16942894.36208  19169262.44409  19169266.77708
 -29518345.46409 -23001313.77908  18625444.20409  18625447.87808
 -15343860.08408 -11956279.21708  20577885.22708  20577891.37608
 -17027328.15208 -13268039.93708  20584386.21608  20584391.72208
 -11195931.97308  -8724088.70908  21797585.53308  21797592.27308
 93 04 07 19 08 00.0000000  0  8 16 02 11 19 29 27 18 28
  -1548249.60408  -1206428.15808  22955173.76808  22955183.81908
  -4261462.27208  -3320613.19908  21999274.99208  21999283.72608
  -9079354.15808  -7074794.72708  21998141.79508  21998151.08508
 -21783850.34809 -16974426.49608  19161562.02609  19161566.37008
 -15020501.82608 -11704312.50308  20639418.86008  20639425.18008
 -17263526.40908 -13452090.34108  20539439.05808  20539444.51008
 -29410740.32709 -22917465.79508  18645920.85409  18645924.57808
 -11061748.74808  -8619530.61308  21823120.12408  21823126.80008
 93 04 07 19 10 00.0000000  0  8 16 02 11 19 29 27 18 28
  -1781833.45608  -1388441.45708  22910724.25708  22910734.15308
  -4594529.76108  -3580145.82608  21935893.99308  21935902.68508
  -9337257.04408  -7275757.65508  21949064.25908  21949073.36708
 -21821280.96709 -17003593.26308  19154439.27109  19154443.56408
 -14691684.93608 -11448092.37208  20701991.30408  20701997.81808
 -17498192.80308 -13634947.07508  20494783.40908  20494788.78908
 -29294557.90309 -22826934.21908  18668029.69309  18668033.49408
 -10918834.61208  -8508169.23908  21850315.81108  21850322.62208
 93 04 07 19 12 00.0000000  0  8 16 02 11 19 29 27 18 28
  -2008100.96008  -1564753.69008  22867666.81608  22867676.67508
  -4924189.61508  -3837023.09208  21873161.34308  21873169.98108
  -9589384.37008  -7472220.13308  21901085.73708  21901094.87908
 -21855948.31109 -17030606.84208  19147842.34709  19147846.72908
 -14357414.63808 -11187622.82508  20765601.37108  20765608.10608
 -17730977.63108 -13816337.64408  20450485.75108  20450491.03908
 -29170207.61409 -22730038.08108  18691693.03809  18691696.87208
 -10767331.00708  -8390114.79508  21879146.35808  21879153.34408
 93 04 07 19 14 00.0000000  0  8 16 02 11 19 29 27 18 28
  -2226925.26908  -1735265.96108  22826025.74108  22826035.77008
  -5250356.84308  -4091178.80708  21811093.46008  21811101.76708
  -9835844.97408  -7664266.96008  21854185.63308  21854194.58008
 -21888377.21609 -17055876.16608  19141671.41309  19141675.81008
 -14018073.20008 -10923201.70508  20830176.44708  20830183.38908
 -17962566.59808 -13996796.40008  20406415.69208  20406420.93708
 -29038007.72309 -22627025.37708  18716849.95809  18716853.84508
 -10607883.35908  -8265870.14908  21909488.42508  21909495.55808
 93 04 07 19 16 00.0000000  0  8 16 02 11 19 29 27 18 28
  -2438896.45108  -1900438.06908  22785688.94908  22785698.72508
  -5573074.67308  -4342646.72608  21749681.74708  21749690.10108
 -10076632.61108  -7851893.28908  21808364.89808  21808373.84908
 -21918455.97609 -17079314.18708  19135947.60509  19135951.98508
 -13674017.84808 -10655107.48408  20895648.73908  20895655.84508
 -18193194.27608 -14176506.12108  20362528.57008  20362533.85208
 -28898382.34109 -22518226.58008  18743419.92609  18743423.84208
 -10440627.41308  -8135541.15508  21941316.42008  21941323.59108
 93 04 07 19 18 00.0000000  0  8 29 16 02 11 27 19 18 28
 -13326957.97008 -10384672.14208  20961692.67808  20961700.15508
  -2645143.96508  -2061150.26008  22746441.16108  22746450.96908
  -5893860.44008  -4592609.18508  21688637.91708  21688646.20508
 -10312831.30808  -8035943.81908  21763417.44108  21763426.27808
 -18423899.20108 -14356276.05808  20318626.80808  20318632.01708
 -21947703.39109 -17102104.40708  19130382.03109  19130386.40308
 -28752466.51109 -22404526.14108  18771186.99409  18771190.99308
 -10266809.92608  -8000099.27108  21974393.04508  21974400.29008
 93 04 07 19 20 00.0000000  0  8 29 16 02 11 27 19 18 28
 -12974668.03408 -10110161.40308  21028731.92908  21028739.62008
  -2843466.49508  -2215687.11908  22708701.61308  22708711.23608
  -6210472.62208  -4839319.49708  21628388.23208  21628396.38308
 -10542275.55808  -8214731.13508  21719755.32008  21719764.02708
 -18652641.59608 -14534516.74008  20275098.53708  20275103.71708
 -21974205.93409 -17122755.76608  19125338.76009  19125343.16308
 -28598493.89209 -22284547.69108  18800487.15809  18800491.18708
 -10084846.36408  -7858309.81608  22009019.83508  22009027.10308
 93 04 07 19 22 00.0000000  0  8 29 16 02 11 27 19 18 28
 -12616923.51708  -9831400.39308  21096809.18508  21096817.08408
  -3033706.14908  -2363925.64708  22672500.00008  22672509.86808
  -6522894.00308  -5082764.26708  21568936.11908  21568944.12308
 -10764528.54508  -8387914.86608  21677461.67708  21677470.44308
 -18879274.72208 -14711113.81308  20231971.48808  20231976.63908
 -21997318.69109 -17140765.73708  19120940.59409  19120945.02508
 -28436058.02809 -22157974.52108  18831397.86909  18831401.95208
  -9894040.65608  -7709630.33308  22045329.08708  22045336.38008
 93 04 07 19 24 00.0000000  0  8 29 16 02 27 11 19 18 28
 -12254478.30008  -9548976.57608  21165780.92408  21165789.10808
  -3216008.21508  -2505979.00108  22637808.90908  22637818.56208
  -6830934.07308  -5322795.04408  21510317.76108  21510325.68108
 -19103999.18408 -14886223.58908  20189207.69508  20189212.85308
 -10979696.54508  -8555577.81408  21636516.26608  21636524.76208
 -22017573.03809 -17156548.37608  19117086.29809  19117090.66108
 -28265489.58509 -22025064.28308  18863856.10609  18863860.20908
  -9695056.59008  -7554578.09008  22083194.86308  22083202.19008
 93 04 07 19 26 00.0000000  0  8 29 16 02 27 11 19 18 28
 -11887466.73808  -9262994.58208  21235621.65008  21235630.15308
  -3390521.74408  -2641963.38608  22604600.00908  22604609.66808
  -7134888.25508  -5559642.02508  21452476.81208  21452484.71008
 -19326992.25108 -15059984.24508  20146773.38808  20146778.51208
 -11187913.31908  -8717824.24808  21596893.63408  21596901.96608
 -22035172.30709 -17170262.11608  19113737.36409  19113741.72308
 -28087000.10509 -21885981.81708  18897821.74409  18897825.91208
  -9488678.53608  -7393764.27008  22122467.41508  22122474.78408
 93 04 07 19 28 00.0000000  0  8 29 16 02 27 11 19 18 28
 -11516003.13108  -8973543.49308  21306309.88108  21306318.44408
  -3557179.37608  -2771826.35008  22572886.04108  22572895.47208
  -7435294.92308  -5793724.73408  21395311.05808  21395318.73908
 -19548624.95108 -15232684.90708  20104597.99508  20104603.04208
 -11388942.07108  -8874469.66808  21558638.81308  21558647.25908
 -22050279.37909 -17182033.89108  19110862.62109  19110867.02908
 -27900852.67309 -21740932.11808  18933244.61209  18933248.88008
  -9274392.97808  -7226788.79908  22163244.75808  22163252.28408
 93 04 07 19 30 00.0000000  0  8 29 16 02 27 11 19 18 28
 -11140413.43708  -8680877.31008  21377782.91808  21377791.83008
  -3715680.88908  -2895333.90908  22542724.11208  22542733.56308
  -7731320.66008  -6024393.76008  21338978.92208  21338986.53808
 -19768495.40908 -15404012.39708  20062757.98508  20062762.91608
 -11582543.81008  -9025327.83408  21521797.33908  21521805.75908
 -22062489.34709 -17191548.18408  19108539.14909  19108543.58308
 -27706951.47009 -21589840.53308  18970142.95909  18970147.27308
  -9052404.50808  -7053811.06808  22205488.06608  22205495.50408
 93 04 07 19 32 00.0000000  0  8 29 16 02 27 11 19 18 28
 -10760348.80308  -8384724.23208  21450107.59408  21450116.90808
  -3866257.10008  -3012665.92508  22514070.32808  22514079.75508
  -8022902.55308  -6251600.08608  21283492.46708  21283500.02308
 -19986281.73708 -15573715.89708  20021314.53308  20021319.41608
 -11768551.07708  -9170268.22108  21486401.19608  21486409.42808
 -22071984.15409 -17198946.78708  19106732.42409  19106736.85808
 -27505250.12509 -21432670.93608  19008525.63409  19008530.03708
  -8822877.58608  -6874959.24008  22249165.80108  22249173.41408
 93 04 07 19 34 00.0000000  0  8 29 16 02 27 11 19 18 28
 -10376149.23608  -8085349.13808  21523219.46108  21523228.82308
  -4008630.36808  -3123606.02708  22486977.51508  22486987.00408
  -8310599.91608  -6475779.53108  21228745.26908  21228752.69208
 -20202407.00408 -15742125.06408  19980187.12708  19980192.04208
 -11946947.96108  -9309278.44208  21452453.12008  21452461.28108
 -22078697.98709 -17204178.38508  19105454.81809  19105459.25508
 -27296031.44709 -21269643.68108  19048338.86709  19048343.33308
  -8586100.18808  -6690457.67108  22294223.06108  22294231.03308
 93 04 07 19 36 00.0000000  0  8 29 16 02 11 27 19 18 28
  -9988078.02608  -7782957.26308  21597067.99708  21597077.56708
  -4142956.79808  -3228275.90208  22461415.94108  22461425.44808
  -8594292.37708  -6696838.28208  21174760.23308  21174767.52908
 -12117407.22708  -9442103.51108  21420015.42408  21420023.64408
 -20416859.25208 -15909230.57708  19939378.11008  19939382.99908
 -22082641.14409 -17207251.00808  19104704.48709  19104708.93308
 -27079285.51409 -21100751.04808  19089584.45909  19089589.03108
  -8341650.21708  -6499977.49308  22340740.64608  22340748.65508
 93 04 07 19 38 00.0000000  0  8 29 16 02 11 27 19 18 28
  -9596165.90708  -7477572.56808  21671647.34008  21671657.33708
  -4269540.93408  -3326912.85108  22437327.83908  22437337.29108
  -8873731.23408  -6914582.54108  21121584.55308  21121591.82908
 -12279989.03208  -9568790.31908  21389076.95308  21389085.00908
 -20629611.39008 -16075011.35608  19898892.65808  19898897.58308
 -22084011.61209 -17208318.93208  19104443.72609  19104448.15108
 -26855020.38109 -20925999.30908  19132260.95009  19132265.58408
  -8090461.02308  -6304246.00108  22388540.64108  22388548.54308
 93 04 07 19 40 00.0000000  0  8 29 16 02 11 27 19 18 28
  -9200816.57708  -7169509.55408  21746880.89508  21746891.20708
  -4387800.55108  -3419063.15608  22414823.70408  22414833.27908
  -9149016.12408  -7129089.95408  21069199.30508  21069206.41508
 -12434484.86108  -9689176.43508  21359677.28108  21359685.20108
 -20840558.31908 -16239385.50108  19858750.79808  19858755.57908
 -22082544.30109 -17207175.60408  19104722.97009  19104727.44408
 -26623294.71109 -20745434.17008  19176357.14809  19176361.85808
  -7832363.52908  -6103131.42608  22437655.35608  22437663.30508
 93 04 07 19 42 00.0000000  0  8 29 16 02 11 27 19 18 28
  -8801549.25308  -6858393.64208  21822859.85708  21822870.70308
  -4497437.48208  -3504494.51708  22393960.47208  22393969.97708
  -9419782.67708  -7340076.61908  21017673.91608  21017681.06108
 -12580428.47908  -9802898.52108  21331904.96508  21331912.85508
 -21049472.42608 -16402175.62008  19818995.61508  19819000.45708
 -22077757.27209 -17203445.50708  19105633.95509  19105638.41908
 -26383874.18809 -20558873.05208  19221917.58709  19221922.37108
  -7567118.96208  -5896447.73408  22488129.96408  22488137.94408
 93 04 07 19 44 00.0000000  0  8 29 16 11 28 27 02 19 18
  -8398282.49108  -6544161.33708  21899600.09808  21899611.39808
  -4598539.95808  -3583275.63108  22374721.28208  22374730.67708
 -12717608.30808  -9909791.65208  21305800.33208  21305808.17508
  -7294450.91508  -5683979.51008  22540017.32708  22540025.53508
 -21255860.94608 -16562997.73808  19779721.12008  19779725.91108
  -9685913.44708  -7547450.99908  20967030.82808  20967037.76008
 -22069920.78509 -17197339.23408  19107125.25409  19107129.75008
 -26136796.78309 -20366345.52908  19268935.17109  19268940.04508
 93 04 07 19 46 00.0000000  0  8 11 29 16 28 02 27 19 18
 -12846492.30008 -10010220.46608  21281274.30108  21281282.04708
  -7991970.86208  -6227556.43308  21976919.93908  21976931.49508
  -4691790.55008  -3655938.42508  22356976.32708  22356985.80308
  -7015349.59208  -5466498.32108  22593128.86108  22593137.06008
  -9948198.74508  -7751828.91608  20917119.33008  20917126.26508
 -21460539.57308 -16722487.46408  19740772.01108  19740776.82508
 -22059425.17609 -17189160.93408  19109122.59209  19109127.08908
 -25883082.43109 -20168646.38008  19317215.62409  19317220.57008
 93 04 07 19 48 00.0000000  0  8 11 29 16 28 02 27 19 18
 -12967679.62608 -10104651.85108  21258212.96108  21258220.63908
  -7583280.20708  -5909097.77308  22054692.24308  22054704.37608
  -4777695.96508  -3722877.74608  22340629.17408  22340638.57608
  -6730643.33807  -5244649.63908  22647306.64007  22647315.24408
 -10206945.27108  -7953449.36308  20867881.45108  20867888.32708
 -21664282.21708 -16881247.87008  19702000.93408  19702005.68808
 -22046841.98009 -17179355.95008  19111517.15209  19111521.70208
 -25623282.08809 -19966204.93008  19366654.21309  19366659.25908
 93 04 07 19 50 00.0000000  0  8 11 29 16 28 02 27 19 18
 -13082473.37108 -10194101.24308  21236368.15008  21236375.76708
  -7174242.16608  -5590368.55108  22132530.94608  22132543.34108
  -4857940.33608  -3785405.90508  22325359.08908  22325368.66608
  -6442197.53407  -5019886.99308  22702196.30007  22702204.89308
 -10463663.89908  -8153489.63508  20819029.29608  20819036.12408
 -21868503.33908 -17040381.13308  19663138.96708  19663143.70708
 -22033974.28209 -17169329.26608  19113965.85209  19113970.39608
 -25358625.34109 -19759979.29608  19417017.13609  19417022.26008
 93 04 07 19 52 00.0000000  0  8 11 29 16 28 02 27 19 18
 -13188385.55008 -10276629.96708  21216213.56208  21216221.15008
  -6762128.74808  -5269242.97208  22210954.95408  22210967.69308
  -4929788.43108  -3841391.65008  22311686.94608  22311696.62408
  -6147389.06407  -4790166.36208  22758296.63907  22758305.37008
 -10715950.68108  -8350076.52508  20771020.58008  20771027.31308
 -22070576.51708 -17197840.67908  19624685.62208  19624690.40108
 -22018057.79809 -17156926.88308  19116994.70509  19116999.26208
 -25087181.22908 -19548464.81908  19468671.52908  19468676.71908
 93 04 07 19 54 00.0000000  0  8 11 29 16 28 02 27 19 18
 -13285912.41608 -10352624.73408  21197654.63108  21197662.26208
  -6347934.95708  -4946496.38808  22289774.88508  22289788.05208
  -4993883.76708  -3891336.28708  22299490.12908  22299499.92208
  -5847042.15908  -4556129.97808  22815451.10208  22815459.69608
 -10964708.76808  -8543913.77008  20723683.26408  20723690.01108
 -22270970.22708 -17353991.55208  19586551.91308  19586556.64508
 -21999845.94709 -17142735.90508  19120460.38709  19120464.97008
 -24809533.68408 -19332116.51208  19521506.39108  19521511.70608
 93 04 07 19 56 00.0000000  0  8 11 29 16 28 02 27 19 18
 -13373722.10408 -10421047.71008  21180944.94308  21180952.42608
  -5930453.85908  -4621188.38308  22369220.25108  22369234.00108
  -5049487.34108  -3934663.91508  22288909.38108  22288919.06708
  -5540413.11408  -4317198.36908  22873800.69808  22873809.36008
 -11208521.05508  -8733897.15208  20677287.19608  20677293.89408
 -22468716.83008 -17508079.75408  19548921.93008  19548926.64908
 -21977892.39109 -17125629.33708  19124638.10009  19124642.71808
 -24524620.00008 -19110106.31608  19575723.95608  19575729.42008
 93 04 07 19 58 00.0000000  0  8 11 29 16 28 02 27 19 18
 -13451222.04708 -10481437.15208  21166197.05008  21166204.52108
  -5509171.66808  -4292918.56108  22449389.17808  22449403.31408
  -5095455.39408  -3970483.25908  22280162.03808  22280171.68308
  -5226847.14008  -4072861.27908  22933470.48708  22933478.97108
 -11446644.81908  -8919447.93208  20631973.48608  20631980.26008
 -22662804.94008 -17659317.19408  19511988.20308  19511992.85408
 -21951645.82409 -17105177.57808  19129632.70009  19129637.34708
 -24231734.25008 -18881884.13108  19631458.68908  19631464.24108
 93 04 07 20 00 00.0000000  0  8 11 29 16 28 02 27 19 18
 -13518791.99108 -10534088.95008  21153338.92008  21153346.32408
  -5084974.02708  -3962376.98008  22530112.88908  22530127.48308
  -5132624.14708  -3999446.04108  22273089.16408  22273098.79008
  -4906569.24407  -3823293.97908  22994416.95907  22994425.69908
 -11679734.94208  -9101076.39908  20587617.82708  20587624.38508
 -22854063.04808 -17808349.43408  19475592.94908  19475597.53608
 -21921602.85309 -17081767.58408  19135349.80609  19135354.43208
 -23931870.23408 -18648224.36108  19688521.31508  19688527.06808
 93 04 07 20 02 00.0000000  0  8 11 29 16 28 02 27 19 18
 -13576992.29508 -10579439.73208  21142263.59608  21142270.96908
  -4658373.29808  -3629962.92708  22611293.70508  22611308.97808
  -5161761.01208  -4022150.28708  22267544.74308  22267554.38608
  -4580966.55607  -3569577.41108  23056376.85307  23056385.57808
 -11908532.85408  -9279360.27808  20544078.89308  20544085.54508
 -23043176.11208 -17955710.18808  19439605.83208  19439610.49808
 -21888438.15709 -17055925.06308  19141660.94809  19141665.60008
 -23625758.22708 -18409695.95608  19746772.75608  19746778.60908
 93 04 07 20 04 00.0000000  0  8 11 29 16 28 02 27 19 18
 -13624866.58408 -10616744.24508  21133153.29008  21133160.77808
  -4228916.66208  -3295323.54208  22693018.37208  22693033.99608
  -5181786.43708  -4037754.73008  22263734.18108  22263744.03908
  -4249343.60508  -3311169.57108  23119482.72408  23119491.07708
 -12131897.55908  -9453410.48008  20501573.81208  20501580.35508
 -23228738.46408 -18100304.14408  19404294.50408  19404299.12708
 -21851185.65709 -17026897.22908  19148749.90209  19148754.59308
 -23312505.44508 -18165603.32108  19806383.09608  19806389.08108
 93 04 07 20 06 00.0000000  0  8 11 29 16 28 02 27 19 18
 -13663733.97108 -10647030.43408  21125757.10108  21125764.47008
  -3798080.19008  -2959609.05808  22775005.39408  22775021.78608
  -5194103.65108  -4047352.80108  22261390.50508  22261400.42608
  -3912992.67708  -3049077.46908  23183487.74808  23183496.02708
 -12351398.47708  -9624449.93308  20459804.04208  20459810.55508
 -23412222.38108 -18243278.55608  19369378.58508  19369383.20508
 -21811238.89309 -16995769.97408  19156351.61409  19156356.32508
 -22993478.41708 -17917011.36008  19867092.36408  19867098.44608
 93 04 07 20 08 00.0000000  0  8 11 29 16 28 02 27 19 18
 -13693239.43208 -10670021.61308  21120142.30108  21120149.69208
  -3365351.61708  -2622420.25608  22857352.70708  22857369.62308
  -5198562.00408  -4050827.11508  22260542.44608  22260552.38908
  -3571751.96508  -2783175.06308  23248423.07108  23248431.43808
 -12566830.79008  -9792319.04008  20418808.46308  20418814.89508
 -23593555.13908 -18384576.77108  19334872.10208  19334876.70308
 -21768033.66009 -16962103.66408  19164573.34709  19164578.08208
 -22668467.32708 -17663756.47608  19928940.24308  19928946.48608
 93 04 07 20 10 00.0000000  0  8 11 16 29 28 02 27 19 18
 -13712977.54408 -10685401.88808  21116386.25108  21116393.48408
  -5195008.28308  -4048058.32108  22261218.88408  22261229.10608
  -2930751.42808  -2283773.15908  22940056.13008  22940073.63508
  -3225431.88008  -2513314.57008  23314325.24308  23314333.46808
 -12777451.13608  -9956438.58408  20378728.59108  20378734.90808
 -23772279.01708 -18523842.09808  19300862.04908  19300866.65308
 -21721392.32709 -16925759.88808  19173448.99709  19173453.70808
 -22337649.20808 -17405976.68408  19991893.25208  19991899.63708
 93 04 07 20 12 00.0000000  0  8 11 16 29 28 02 27 19 18
 -13724081.57908 -10694054.33408  21114273.11408  21114280.39408
  -5184617.17908  -4039961.75508  22263196.55308  22263206.76908
  -2495871.19208  -1944907.82608  23022812.82308  23022831.16108
  -2875520.08407  -2240655.26308  23380910.68407  23380918.38708
 -12984510.76908 -10117783.56108  20339326.27908  20339332.62408
 -23949020.55008 -18661562.73108  19267229.22308  19267233.80308
 -21672294.59209 -16887502.04208  19182792.02709  19182796.84608
 -22002085.78808 -17144499.36608  20055749.41108  20055755.91708
 93 04 07 20 14 00.0000000  0  8 11 16 29 28 02 27 19 18
 -13724775.55108 -10694595.04708  21114141.07408  21114148.35208
  -5165640.38008  -4025175.04308  22266807.93408  22266818.32708
  -2058726.24108  -1604277.80008  23106000.61508  23106019.33108
  -2520292.76808  -1963853.94208  23448507.50408  23448515.03608
 -13186879.51008 -10275473.31508  20300816.77908  20300823.05208
 -24122207.26808 -18796513.38808  19234272.88208  19234277.43808
 -21619272.46309 -16846186.23708  19192881.97309  19192886.79808
 -21659930.69408 -16877885.69208  20120859.80908  20120866.57908
 93 04 07 20 16 00.0000000  0  8 11 16 29 28 02 27 19 18
 -13715436.02008 -10687317.43308  21115918.28408  21115925.55808
  -5138461.58608  -4003997.15308  22271980.21508  22271990.56308
  -1619963.24607  -1262387.01807  23189496.26507  23189515.29007
  -2160297.04308  -1683336.89708  23517011.80908  23517019.27008
 -13384410.28308 -10429393.23208  20263227.74108  20263234.01408
 -24292562.35608 -18929257.57708  19201855.35208  19201859.88208
 -21562633.74509 -16802052.32208  19203660.05809  19203664.92108
 -21312025.17808 -16606791.21908  20187064.62408  20187071.50908
 93 04 07 20 18 00.0000000  0  8 11 16 29 28 02 27 19 18
 -13696996.04008 -10672948.59208  21119427.27408  21119434.58208
  -5104142.34308  -3977255.27408  22278511.00008  22278521.63908
  -1180625.45907   -920048.27107  23273101.33407  23273120.89207
  -1796873.27008  -1400148.56407  23586168.21708  23586175.56407
 -13578219.92308 -10580413.56208  20226346.88808  20226353.15008
 -24460336.73408 -19059990.82708  19169928.88708  19169933.48508
 -21502767.48609 -16755403.43908  19215052.37009  19215057.26708
 -20959528.30208 -16332119.05708  20254143.12408  20254150.17008
 93 04 07 20 20 00.0000000  0  8 11 16 29 28 02 27 19 18
 -13669008.46108 -10651140.06608  21124753.14008  21124760.43508
  -5062463.33708  -3944778.51108  22286442.59508  22286453.39308
   -740716.84207   -577264.62707  23356814.95807  23356835.28207
  -1429583.74908  -1113947.83607  23656060.48008  23656067.45107
 -13767918.66608 -10728230.58208  20190248.24408  20190254.40208
 -24625384.42208 -19188599.37008  19138521.33708  19138525.90408
 -21439697.87609 -16706258.43908  19227054.23909  19227059.18308
 -20601790.73808 -16053363.25708  20322218.80708  20322226.14108
 93 04 07 20 22 00.0000000  0  8 11 16 29 28 02 27 19 18
 -13631143.37008 -10621634.78408  21131958.63708  21131965.94108
  -5012862.88008  -3906129.23608  22295881.65808  22295892.32808
   -299861.36407   -233743.19607  23440708.65607  23440729.55407
  -1058056.03607   -824444.63707  23726758.88607  23726765.63407
 -13953320.03408 -10872698.98108  20154967.34308  20154973.55708
 -24787464.89608 -19314895.79008  19107678.43708  19107682.95608
 -21373009.11609 -16654293.31008  19239744.79409  19239749.72008
 -20238968.85508 -15770645.66208  20391262.19108  20391269.59508
 93 04 07 20 24 00.0000000  0  8 11 16 29 28 02 27 19 18
 -13583736.12008 -10584694.11508  21140980.01908  21140987.24808
  -4956143.51208  -3861932.77208  22306675.36608  22306686.00208
    141850.45907    110445.46007  23524765.45607  23524786.83007
   -683228.01007   -532369.87607  23798085.53307  23798092.05007
 -14134365.24308 -11013772.98808  20120515.45508  20120521.51508
 -24946584.84008 -19438885.29608  19077398.90008  19077403.42008
 -21302789.60509 -16599576.93408  19253107.20309  19253112.21808
 -19871369.78508 -15484205.60408  20461214.51008  20461222.10408
 93 04 07 20 26 00.0000000  0  7 11 16 29 02 27 19 18
 -13526896.36808 -10540403.46808  21151796.26808  21151803.56008
  -4892415.40108  -3812275.02308  22318802.83508  22318813.64508
    583694.05707    454736.78107  23608847.09107  23608869.07707
 -14311504.27608 -11151803.28308  20086806.95008  20086812.96808
 -25102727.31908 -19560554.70208  19047685.92908  19047690.41508
 -21229214.49109 -16542245.81708  19267108.19809  19267113.22808
 -19499567.70608 -15194490.50308  20531966.73108  20531974.48608
 93 04 07 20 28 00.0000000  0  7 11 16 29 02 27 19 18
 -13459852.05608 -10488161.23208  21164554.42708  21164561.75908
  -4820847.77008  -3756508.55408  22332422.13908  22332433.12508
   1026553.77507    799819.92907  23693122.36107  23693145.28907
 -14483827.83608 -11286081.25808  20054014.81508  20054020.83808
 -25255190.69008 -19679357.27208  19018673.10808  19018677.54808
 -21151353.48009 -16481575.03408  19281924.77209  19281929.84408
 -19122460.37908 -14900641.50008  20603728.56708  20603736.53308
 93 04 07 20 30 00.0000000  0  7 11 16 29 02 27 19 18
 -13382119.67108 -10427590.62408  21179346.48308  21179353.85708
  -4741200.07408  -3694445.92808  22347579.04408  22347590.06008
   1470491.83707   1145743.04407  23777602.91907  23777626.42507
 -14651120.83308 -11416439.32908  20022179.95908  20022185.86508
 -25403446.73908 -19794881.41308  18990460.85608  18990465.30308
 -21068953.33809 -16417367.26608  19297605.08009  19297610.18208
 -18739672.10608 -14602365.82608  20676571.37608  20676579.59208
 93 04 07 20 32 00.0000000  0  6 11 16 02 27 19 18
 -13293995.98908 -10358922.88308  21196115.84508  21196123.29208
  -4653741.20908  -3626296.66908  22364222.22208  22364233.53008
 -14813192.90808 -11542729.16208  19991338.57508  19991344.49208
 -25547617.40208 -19907222.14108  18963026.06508  18963030.51508
 -20982319.07209 -16349860.16808  19314091.16609  19314096.25508
 -18352071.94108 -14300340.66308  20750329.89308  20750338.39108
 93 04 07 20 34 00.0000000  0  6 11 16 02 27 19 18
 -13196605.35108 -10283034.12608  21214648.77708  21214656.18008
  -4560119.94408  -3553345.55808  22382038.29808  22382049.47908
 -14971519.27408 -11666100.26308  19961209.99008  19961215.90608
 -25688495.81408 -20016997.48908  18936217.74108  18936222.19708
 -20891942.72509 -16279437.16408  19331289.28709  19331294.44008
 -17960763.73308 -13995426.10008  20824794.15808  20824802.89808
 93 04 07 20 36 00.0000000  0  7 11 16 15 02 27 19 18
 -13090767.90608 -10200563.47008  21234788.99208  21234796.49408
  -4460536.73108  -3475748.76608  22400988.57908  22401000.02108
        -0.79817        -0.03317  23710574.25817  23710591.40217
 -15127090.81308 -11787324.74608  19931605.70008  19931611.52708
 -25826857.98108 -20124812.13008  18909888.32308  18909892.70408
 -20798763.99509 -16206830.49208  19349020.72809  19349025.94408
 -17566294.92808 -13688048.73708  20899859.74508  20899868.65708
 93 04 07 20 38 00.0000000  0  7 11 16 18 15 02 27 19
 -12975829.10008 -10111000.85208  21256661.25208  21256668.69808
  -4354576.42908  -3393182.78708  22421152.63808  22421164.20508
 -17168401.79108 -13378003.10508  20975576.96508  20975586.13408
   -262184.15807   -204298.17707  23660682.02107  23660699.01307
 -15278640.95108 -11905415.62708  19902766.54508  19902772.41608
 -25961762.28208 -20229932.31708  18884216.80608  18884221.22008
 -20702075.90609 -16131489.25408  19367419.89709  19367425.16308
 93 04 07 20 40 00.0000000  0  7 11 16 15 18 02 27 19
 -12851869.16208 -10014408.78008  21280250.14408  21280257.65508
  -4242250.10508  -3305656.28208  22442528.10808  22442539.65708
   -524121.48807   -408404.57307  23610836.49007  23610853.46407
 -16767409.11808 -13065542.31108  21051884.22908  21051893.64408
 -15426489.50508 -12020622.14408  19874631.82808  19874637.61308
 -26093656.97808 -20332707.33408  18859118.03608  18859122.45008
 -20601851.82909 -16053392.69508  19386492.08109  19386497.32308
 93 04 07 20 42 00.0000000  0  7 11 16 15 18 02 27 19
 -12718807.19008  -9910724.19608  21305570.95708  21305578.47708
  -4124017.35108  -3213527.40708  22465027.34908  22465039.15308
   -785481.32507   -612060.88307  23561100.89207  23561117.61107
 -16362938.11408 -12750371.16808  21128853.33008  21128862.87108
 -15570979.07408 -12133211.27408  19847136.25308  19847141.96308
 -26221937.09508 -20432665.78408  18834707.11008  18834711.42708
 -20497905.02709 -15972395.31908  19406272.57609  19406277.88408
 93 04 07 20 44 00.0000000  0  7 16 15 11 18 27 02 19
  -3999572.24108  -3116557.72208  22488708.95808  22488720.83508
  -1045572.93007   -814728.95707  23511606.49207  23511623.17507
 -12576212.43208  -9799611.45708  21332705.90208  21332713.49308
 -15954903.52408 -12432423.23708  21206500.49408  21206510.40508
 -26345918.33308 -20529274.46908  18811114.14808  18811118.53008
 -15711211.05808 -12242482.82908  19820450.88008  19820456.60008
 -20389858.79609 -15888203.57408  19426833.21609  19426838.48608
 93 04 07 20 46 00.0000000  0  7 16 15 11 18 02 27 19
  -3867960.73908  -3014003.81608  22513754.20608  22513766.18108
  -1303606.22207  -1015793.16107  23462503.81107  23462520.31607
 -12423562.83208  -9680663.79208  21361754.24808  21361761.79308
 -15542958.07308 -12111427.90308  21284891.97008  21284902.12408
 -15846323.50008 -12347765.10008  19794739.70108  19794745.44708
 -26465297.81609 -20622297.38908  18788397.02109  18788401.36408
 -20276992.40909 -15800255.85608  19448311.00209  19448316.33208
 93 04 07 20 48 00.0000000  0  7 15 16 02 27 11 19 18
  -1559660.09207  -1215314.75807  23413777.88507  23413794.07007
  -3729665.92308  -2906242.17108  22540071.07808  22540083.32508
 -15977262.71008 -12449795.51808  19769822.76108  19769828.43508
 -26579910.91709 -20711606.25608  18766586.83809  18766591.17908
 -12261211.32708  -9554156.23608  21392648.82808  21392656.39808
 -20159357.36009 -15708592.29608  19470696.34309  19470701.75108
 -15127324.27408 -11787558.58508  21363985.35408  21363995.83608
 93 04 07 20 50 00.0000000  0  8 15 16 02 27 11 19 18 26
  -1814331.36807  -1413758.86007  23365314.70607  23365330.63507
  -3586043.38808  -2794329.16508  22567402.08208  22567414.35708
 -16104512.65208 -12548951.18208  19745607.76708  19745613.41208
 -26690505.70009 -20797783.96308  18745541.31609  18745545.63208
 -12090033.57008  -9420771.10008  21425222.95608  21425230.55008
 -20037991.21909 -15614021.40308  19493791.65709  19493796.99808
 -14709027.29308 -11461614.12008  21443585.49308  21443596.21708
        -0.44516        -0.45216  23820816.09816  23820827.59416
 93 04 07 20 52 00.0000000  0  8 15 16 02 27 11 19 18 26
  -2068887.75307  -1612113.28207  23316873.42407  23316888.90007
  -3438482.84808  -2679347.59808  22595482.54708  22595494.99808
 -16229565.52408 -12646394.86008  19721810.89508  19721816.53908
 -26798406.18809 -20881862.20508  18725008.47609  18725012.80908
 -11911586.55208  -9281721.60708  21459180.36208  21459188.02508
 -19914096.07009 -15517479.87608  19517368.23209  19517373.71508
 -14289736.62808 -11134895.41908  21523374.81508  21523385.96108
   -395494.90107   -308177.93207  23745556.00907  23745567.20207
 93 04 07 20 54 00.0000000  0  8 15 16 02 27 11 19 18 26
  -2322170.64407  -1809475.26007  23268674.17507  23268689.65307
  -3285942.26908  -2560485.45408  22624510.53808  22624523.28608
 -16351691.40208 -12741557.74308  19698571.01908  19698576.62708
 -26902910.65109 -20963294.18908  18705121.93509  18705126.18708
 -11725002.47008  -9136331.57408  21494686.34408  21494693.91108
 -19786821.50709 -15418305.05608  19541587.86709  19541593.37708
 -13868361.50508 -10806552.52408  21603560.80308  21603572.36708
   -789778.69107   -615411.90507  23670526.24207  23670537.52807
 93 04 07 20 56 00.0000000  0  8 15 16 02 27 11 19 18 26
  -2574486.38907  -2006083.66607  23220659.27207  23220674.16707
  -3129312.62808  -2438437.05908  22654316.62608  22654329.51508
 -16471219.84108 -12834696.62708  19675825.36908  19675830.94808
 -27004027.36009 -21042086.36108  18685880.00409  18685884.27408
 -11530888.69708  -8985074.25108  21531624.89708  21531632.65808
 -19656546.40709 -15316792.15408  19566378.52709  19566384.06708
 -13446006.90008 -10477446.44908  21683933.40608  21683945.17208
  -1183322.50607   -922069.19407  23595637.38707  23595648.10607
 93 04 07 20 58 00.0000000  0  8 15 16 02 27 11 19 18 26
  -2824335.24907  -2200769.80307  23173113.52607  23173128.09107
  -2967382.62308  -2312258.48908  22685131.47608  22685144.31508
 -16586773.21308 -12924738.06208  19653836.13008  19653841.69008
 -27100455.24909 -21117224.91008  18667530.33609  18667534.59608
 -11328050.17308  -8827018.43908  21570224.01408  21570231.72508
 -19521714.12709 -15211728.19408  19592036.37809  19592042.01908
 -13021302.50108 -10146509.45408  21764752.93308  21764765.18408
  -1574220.23207  -1226664.58307  23521251.57207  23521262.58007
 93 04 07 21 00 00.0000000  0  8 15 16 02 27 11 19 18 26
  -3071153.74807  -2393094.59307  23126144.54307  23126158.90007
  -2799745.63208  -2181632.95407  22717032.12508  22717045.30007
 -16698180.82109 -13011549.02908  19632635.96609  19632641.49408
 -27191985.82809 -21188547.36708  18650112.61109  18650116.89008
 -11116233.22008  -8661966.46008  21610531.56408  21610539.42508
 -19382214.86009 -15103027.62808  19618582.37109  19618587.95708
 -12593884.23708  -9813457.83908  21846089.20308  21846101.80908
  -1962025.93207  -1528850.49307  23447454.31807  23447465.29107
 93 04 07 21 02 00.0000000  0  8 15 16 02 27 11 19 18 26
  -3314611.49907  -2582800.53307  23079815.01207  23079829.08407
  -2626906.07607  -2046953.50807  22749923.02207  22749936.41007
 -16805351.48209 -13095058.47008  19612241.87609  19612247.31208
 -27277898.25609 -21255492.03908  18633763.97909  18633768.17008
 -10895423.19508  -8489906.89008  21652550.51808  21652558.36508
 -19237658.10309 -14990386.15108  19646090.70709  19646096.33008
 -12164068.11008  -9478537.84108  21927881.73508  21927894.64808
  -2346803.02508  -1828676.45507  23374233.72108  23374244.22507
 93 04 07 21 04 00.0000000  0  8 15 16 02 27 11 19 18 26
  -3555121.70507  -2770209.74707  23034046.54307  23034060.12207
  -2449330.53007  -1908583.72608  22783715.11107  22783728.67808
 -16908982.28509 -13175809.58708  19592521.53309  19592526.92908
 -27359258.19209 -21318889.30808  18618281.60409  18618285.80708
 -10666353.51908  -8311411.22708  21696141.18908  21696149.06208
 -19088589.01709 -14874228.58508  19674457.72709  19674463.36308
 -11732373.45208  -9142154.10608  22010031.83508  22010044.95408
  -2728581.28408  -2126165.62007  23301583.30108  23301593.76707
 93 04 07 21 06 00.0000000  0  8 15 16 02 27 11 19 18 26
  -3792808.69407  -2955419.11307  22988815.23807  22988828.52207
  -2267364.84407  -1766793.07208  22818342.57507  22818356.28708
 -17009469.04409 -13254110.81408  19573399.40309  19573404.74008
 -27435876.39809 -21378591.72208  18603701.59009  18603705.79308
 -10429472.38908  -8126828.74808  21741218.27308  21741226.26808
 -18935826.33309 -14755192.90508  19703527.65709  19703533.34608
 -11299611.29608  -8804938.60308  22092385.13308  22092398.75808
  -3107579.15608  -2421488.25807  23229462.08308  23229472.54707
 93 04 07 21 08 00.0000000  0  8 15 16 02 27 11 19 18 26
  -4028188.50307  -3138830.77307  22944022.95407  22944036.00807
  -2081832.81507  -1622223.46008  22853648.61407  22853662.70108
 -17107266.82509 -13330316.74908  19554789.02309  19554794.35408
 -27508504.28709 -21435184.80608  18589880.90809  18589885.10708
 -10185623.16708  -7936816.53108  21787621.46808  21787629.37208
 -18779850.00608 -14633653.07908  19733209.06708  19733214.84508
 -10866485.88808  -8467440.10608  22174807.50208  22174821.60108
  -3484858.69808  -2715471.88908  23157667.86108  23157678.46508
 93 04 07 21 10 00.0000000  0  8 15 16 02 27 11 19 18 26
  -4260582.88408  -3319916.13708  22899798.97308  22899811.73508
  -1892884.28607  -1474991.66407  22889605.05807  22889619.20707
 -17202185.51909 -13404279.24208  19536726.53909  19536731.84008
 -27576348.40009 -21488050.27908  18576970.55109  18576974.71308
  -9934460.69608  -7741105.67508  21835416.20608  21835424.16208
 -18619455.57408 -14508670.57708  19763731.27808  19763737.06408
 -10432410.75808  -8129201.68208  22257410.69208  22257425.43408
  -3859222.34808  -3007183.27708  23086428.18608  23086438.86808
 93 04 07 21 12 00.0000000  0  8 15 16 02 27 11 19 18 26
  -4488812.07208  -3497755.93108  22856367.50308  22856380.01608
  -1699725.35607  -1324479.08007  22926362.54607  22926376.91907
 -17293344.58209 -13475312.13608  19519379.48209  19519384.70608
 -27638395.18309 -21536398.35108  18565163.38409  18565167.48908
  -9675139.75808  -7539037.60208  21884763.41508  21884771.53208
 -18454064.73108 -14379794.77408  19795204.28808  19795210.12008
  -9996966.06908  -7789896.14608  22340274.50708  22340289.76608
  -4229716.08508  -3295879.11608  23015925.19208  23015935.49108
 93 04 07 21 14 00.0000000  0  8 15 16 02 27 11 19 18 26
  -4713550.62608  -3672875.92208  22813600.52608  22813612.76708
  -1502990.98807  -1171180.44507  22963800.38307  22963815.25107
 -17381464.36609 -13543976.76208  19502610.62109  19502615.84108
 -27695797.71809 -21581127.52708  18554239.99009  18554244.10308
  -9408673.44708  -7331401.73908  21935470.35608  21935478.56308
 -18284728.84808 -14247844.91808  19827427.94808  19827433.76608
  -9560831.21908  -7450052.89808  22423269.76908  22423285.50208
  -4597195.51108  -3582226.10108  22945995.71108  22946006.02808
 93 04 07 21 16 00.0000000  0  8 15 16 02 27 11 19 18 26
  -4933696.90608  -3844417.58208  22771707.36508  22771719.48708
  -1301542.72907  -1014208.68206  23002135.76507  23002150.21206
 -17465833.92709 -13609719.13108  19486555.58609  19486560.76808
 -27747502.89809 -21621417.23108  18544400.77909  18544404.86708
  -9134300.48708  -7117604.83008  21987682.05008  21987690.26408
 -18110250.70708 -14111888.10008  19860630.11408  19860636.05808
  -9123286.58408  -7109111.19008  22506533.43308  22506549.72808
  -4960020.73508  -3864946.39608  22876952.09308  22876961.94508
 93 04 07 21 18 00.0000000  0  8 15 16 02 27 11 19 18 26
  -5148988.10608  -4012176.12008  22730738.24108  22730749.99008
  -1096357.07907   -854324.67807  23041181.92807  23041196.87707
 -17546386.13009 -13672486.94608  19471226.84109  19471231.99208
 -27792992.83009 -21656863.89908  18535744.31109  18535748.41108
  -8852100.23908  -6897708.75508  22041383.01708  22041391.39108
 -17930701.19708 -13971979.59508  19894797.42108  19894803.38808
  -8684400.99208  -6767124.65308  22590052.27408  22590069.18008
  -5318391.40708  -4144195.64708  22808755.84508  22808765.59308
 93 04 07 21 20 00.0000000  0  8 15 16 02 27 11 19 18 26
  -5360380.44208  -4176896.61408  22690510.88708  22690522.62608
   -888522.60707   -692376.63807  23080732.14607  23080747.38307
 -17624205.23109 -13733125.09208  19456418.32509  19456423.50108
 -27833273.36709 -21688251.29608  18528079.15109  18528083.26208
  -8563374.67308  -6672728.01408  22096325.92408  22096334.20308
 -17746967.70108 -13828810.85508  19929760.92808  19929766.93508
  -8245531.54908  -6425150.78208  22673568.06908  22673585.59708
  -5673382.20308  -4420811.22708  22741202.95208  22741212.54208
 93 04 07 21 22 00.0000000  0  8 15 16 02 27 11 19 18 26
  -5567532.25608  -4338312.82308  22651090.74108  22651101.99008
   -677909.35307   -528263.31207  23120810.83907  23120826.70707
 -17699255.84109 -13791605.97708  19442136.59809  19442141.70308
 -27868357.23409 -21715589.33208  18521402.88209  18521406.97608
  -8268126.92308  -6442665.08708  22152509.78108  22152518.28808
 -17559566.98408 -13682784.55508  19965422.29508  19965428.31208
  -7806889.61608  -6083354.29708  22757040.70608  22757058.71708
  -6024467.85008  -4694383.81908  22674393.03508  22674402.38308
 93 04 07 21 24 00.0000000  0  7 15 02 27 11 19 18 26
  -5770096.47008  -4496154.27508  22612543.35208  22612554.56408
 -17771573.73909 -13847957.44608  19428374.82909  19428379.92808
 -27897916.99709 -21738622.85508  18515777.79809  18515781.87408
  -7966357.54908  -6207520.39108  22209934.95808  22209943.30808
 -17367655.41608 -13533243.32508  20001942.02508  20001948.11108
  -7368280.89308  -5741583.72208  22840507.11808  22840525.66808
  -6371491.68708  -4964791.44108  22608356.22408  22608365.51308
 93 04 07 21 26 00.0000000  0  8 15 16 02 27 11 19 18 26
  -5968215.56808  -4650531.99108  22574841.96208  22574853.03608
        -0.01617        -0.27217  23202446.00517  23202461.97517
 -17840789.95309 -13901891.99608  19415203.29309  19415208.37308
 -27922133.36909 -21757492.70408  18511169.55609  18511173.57308
  -7658556.58108  -5967675.77708  22268507.68908  22268516.34308
 -17171531.24608 -13380419.57808  20039263.42308  20039269.61308
  -6930231.53408  -5400249.06408  22923867.04208  22923886.15208
  -6714710.34708  -5232234.01208  22543043.29408  22543052.75908
 93 04 07 21 28 00.0000000  0  8 15 16 02 27 11 19 18 26
  -6162497.88608  -4801919.97108  22537870.62108  22537881.43208
    216897.52407    169009.82407  23243721.15307  23243737.11307
 -17908536.50809 -13954681.36808  19402311.42909  19402316.46008
 -27941902.56309 -21772897.23508  18507407.56509  18507411.58308
  -7345680.28308  -5723876.36208  22328046.33908  22328054.98908
 -16972048.17008 -13224978.50608  20077223.93008  20077230.21908
  -6493675.97008  -5060078.40008  23006942.71908  23006962.50308
  -7054425.33608  -5496946.49208  22478397.47708  22478406.62208
 93 04 07 21 30 00.0000000  0  8 15 16 02 27 11 19 18 26
  -6351202.79608  -4948961.94308  22501960.70708  22501971.34108
    436609.28207    340212.88007  23285531.55107  23285548.12007
 -17973037.72209 -14004941.93008  19390037.16609  19390042.13708
 -27955296.73509 -21783334.23308  18504858.73909  18504862.76608
  -7026335.38008  -5475036.47108  22388815.87608  22388824.57408
 -16767843.37308 -13065858.18208  20116083.05808  20116089.40008
  -6057089.55908  -4719883.72307  23090024.21008  23090044.63907
  -7388872.38208  -5757554.00708  22414753.82908  22414762.85208
 93 04 07 21 32 00.0000000  0  8 15 16 02 27 11 19 18 26
  -6533923.92908  -5091341.28308  22467189.43208  22467199.90108
    659046.43507    513539.62007  23327860.53507  23327877.27207
 -18033974.59309 -14052425.11408  19378441.20809  19378446.14108
 -27962149.25009 -21788673.82508  18503554.71509  18503558.74608
  -6700465.25408  -5221111.97708  22450827.26308  22450835.73808
 -16558409.72408 -12902663.43608  20155937.20108  20155943.55108
  -5620676.75808  -4379824.38007  23173072.78108  23173093.77907
  -7717919.84908  -6013954.02008  22352137.62908  22352146.49908
 93 04 07 21 34 00.0000000  0  8 15 16 02 27 11 19 18 26
  -6710879.42008  -5229227.92308  22433515.43508  22433525.66808
    883280.21607    688266.27007  23370531.66607  23370548.47207
 -18092056.79109 -14097683.85008  19367388.44909  19367393.34908
 -27962724.17209 -21789121.77508  18503445.28509  18503449.33508
  -6368633.37908  -4962541.94308  22513972.76808  22513981.58408
 -16344284.94408 -12735813.27008  20196684.08708  20196690.47808
  -5184645.17307  -4040062.13607  23256048.83807  23256070.47307
  -8041772.69708  -6266306.27308  22290510.26308  22290518.75408
 93 04 07 21 36 00.0000000  0  8 15 16 02 27 11 19 18 26
  -6881902.52208  -5362491.93608  22400970.23708  22400980.21608
   1109744.88407    864731.28107  23413627.10307  23413644.18907
 -18147263.90409 -14140702.24208  19356882.77609  19356887.66008
 -27957000.86309 -21784662.02108  18504534.43609  18504538.41308
  -6031018.44908  -4699465.63008  22578218.95608  22578227.77208
 -16125383.53608 -12565241.04308  20238339.78808  20238346.31408
  -4748924.49407  -3700542.13507  23338965.89007  23338987.97807
  -8360285.48908  -6514497.49308  22229898.77308  22229907.17908
 93 04 07 21 38 00.0000000  0  8 15 16 02 27 11 19 18 26
  -7046266.47208  -5490567.02508  22369692.19108  22369702.19908
   1338572.90707   1043037.96707  23457172.17207  23457189.46107
 -18198690.91009 -14180775.08808  19347096.44409  19347101.29608
 -27944267.12109 -21774739.60008  18506957.53009  18506961.48008
  -5687237.33408  -4431584.47808  22643638.50808  22643647.49008
 -15901156.85008 -12390519.29008  20281008.97308  20281015.70408
  -4313698.03507  -3361407.16607  23421788.62907  23421811.40607
  -8672754.15408  -6757978.99908  22170437.40508  22170445.66108
 93 04 07 21 40 00.0000000  0  7 15 16 02 27 11 19 26
  -7204267.84208  -5613684.31008  22339625.10408  22339634.86908
   1568707.45707   1222362.59207  23500966.25707  23500983.51807
 -18247129.57609 -14218519.35908  19337878.73509  19337883.54608
 -27924992.68309 -21759720.54708  18510625.33209  18510629.26508
  -5337929.15108  -4159396.52108  22710109.77708  22710118.87008
 -15672279.91208 -12212173.94508  20324562.96908  20324569.71408
  -8979277.95608  -6996828.12208  22112107.60108  22112115.68208
 93 04 07 21 42 00.0000000  0  8 15 16 02 27 11 19 13 26
  -7355677.52108  -5731665.28508  22310812.36308  22310821.88008
   1800524.74307   1402998.50406  23545080.21407  23545097.94706
 -18292461.39309 -14253842.71008  19329252.30209  19329257.03708
 -27899099.51609 -21739544.05208  18515552.61809  18515556.58708
  -4983204.40908  -3882987.83908  22777611.88108  22777621.03208
 -15438508.52208 -12030014.78908  20369048.51608  20369055.36508
        -0.79717        -0.12816  22742433.82017  22742454.32916
  -9280087.77308  -7231224.83508  22054864.87308  22054872.90508
 93 04 07 21 44 00.0000000  0  8 15 16 02 27 11 19 13 26
  -7500373.58608  -5844414.85808  22283277.05208  22283286.57608
   2034004.21207   1584929.63807  23589510.71407  23589528.55107
 -18334942.13409 -14286944.45208  19321168.36509  19321173.11408
 -27866284.05609 -21713973.57508  18521797.20809  18521801.19208
  -4623278.55008  -3602526.31608  22846103.64208  22846112.69108
 -15199746.64008 -11843966.94008  20414483.70608  20414490.67608
   -485934.54407   -378647.23606  22649961.77107  22649981.62006
  -9574838.73208  -7460900.40408  21998775.21408  21998783.07908
 93 04 07 21 46 00.0000000  0  8 15 16 02 27 11 19 13 26
  -7639635.67708  -5952930.22408  22256776.02508  22256785.33708
   2267319.28607   1766732.67407  23633909.67007  23633927.80307
 -18375956.49609 -14318903.55708  19313363.49009  19313368.22408
 -27827928.93709 -21684086.48008  18529095.92909  18529099.90208
  -4259765.59408  -3319269.61108  22915277.96608  22915287.19408
 -14957335.30908 -11655075.36008  20460613.27008  20460620.36008
   -972346.36807   -757666.72807  22557398.80507  22557417.80407
  -9864430.82708  -7686556.13808  21943667.41708  21943675.16708
 93 04 07 21 48 00.0000000  0  8 15 16 02 27 11 19 13 26
  -7774522.75308  -6058036.49708  22231107.53808  22231116.54908
   2498958.73907   1947229.99907  23677989.86707  23678008.31207
 -18416438.79709 -14350448.08708  19305659.88109  19305664.57908
 -27785609.73809 -21651110.48108  18537149.01209  18537152.94808
  -3894054.88208  -3034300.31808  22984870.32908  22984879.71708
 -14712771.97308 -11464506.88708  20507152.39008  20507159.52808
  -1460246.26807  -1137845.87507  22464552.53207  22464570.93007
 -10150227.91308  -7909254.72108  21889281.66908  21889289.34708
 93 04 07 21 50 00.0000000  0  8 15 16 02 27 11 19 13 26
  -7902978.27208  -6158131.17008  22206662.80108  22206671.72108
   2730584.34707   2127716.52306  23722067.41807  23722086.17606
 -18454889.70209 -14380409.72108  19298342.83209  19298347.49608
 -27736682.64609 -21612985.48208  18546459.51909  18546463.51408
  -3524418.40408  -2746271.88808  23055209.93708  23055219.02308
 -14464077.98808 -11270719.73508  20554477.58808  20554484.66708
  -1947517.39707  -1517535.15807  22371825.82707  22371843.71007
 -10430175.31508  -8127395.17508  21836009.19808  21836016.73408
 93 04 07 21 52 00.0000000  0  8 15 16 02 27 11 19 13 26
  -8022712.70808  -6251430.18808  22183877.63808  22183886.44508
   2964221.05906   2309770.20706  23766527.59406  23766546.69006
 -18489230.80009 -14407168.90208  19291807.88109  19291812.46508
 -27679555.24209 -21568470.62408  18557330.51609  18557334.49008
  -3148890.28408  -2453652.46708  23126670.69708  23126679.43208
 -14209225.90208 -11072134.08308  20602974.66808  20602981.81708
  -2431809.55807  -1894903.03407  22279666.16207  22279683.40507
 -10702225.26308  -8339381.77008  21784239.54208  21784246.96508
 93 04 07 21 54 00.0000000  0  7 15 27 02 11 13 19 26
  -8134991.20008  -6338919.36908  22162511.41708  22162520.04608
 -27615507.62609 -21518563.40708  18569518.38709  18569522.31508
 -18520552.69909 -14431575.44908  19285847.40309  19285852.01208
  -2769053.67008  -2157675.68908  23198950.74708  23198959.84808
  -2914321.13008  -2270883.45907  22187845.39608  22187862.01407
 -13949510.54108 -10869758.87008  20652397.12608  20652404.39508
 -10967519.58708  -8546104.26308  21733755.35708  21733762.73508
 93 04 07 21 56 00.0000000  0  7 15 11 02 27 13 26 19
  -8240526.36908  -6421154.02108  22142428.24808  22142436.80608
  -2385936.48008  -1859142.57908  23271855.36608  23271864.29608
 -18549880.39609 -14454428.06008  19280266.40709  19280270.95808
 -27544980.62309 -21463607.32708  18582939.22509  18582943.22808
  -3395690.39508  -2645974.04607  22096242.17008  22096258.09107
 -11226438.43708  -8747858.83308  21684484.52608  21684491.89508
 -13685994.28208 -10664421.92308  20702542.92508  20702550.35208
 93 04 07 21 58 00.0000000  0  7 15 11 02 27 13 26 19
  -8338606.08408  -6497579.21608  22123763.78908  22123772.27108
  -1999134.83108  -1557738.40608  23345461.18608  23345469.99808
 -18576552.38809 -14475211.29208  19275190.70209  19275195.19808
 -27467299.51809 -21403076.62708  18597721.45309  18597725.46808
  -3875127.85808  -3019559.70007  22005006.69908  22005022.06807
 -11478528.97108  -8944292.63308  21636512.84908  21636520.13208
 -13418007.20008 -10455601.21508  20753539.43008  20753547.01408
 93 04 07 22 00 00.0000000  0  7 15 11 02 27 13 26 19
  -8429968.88108  -6568770.45208  22106377.63708  22106385.87008
  -1609693.76008  -1254277.46708  23419569.07108  23419577.76308
 -18601606.20809 -14494733.61608  19270423.10009  19270427.52208
 -27383523.66709 -21337796.76108  18613663.51709  18613667.50908
  -4353290.75508  -3392152.36707  21914013.86108  21914028.87507
 -11724422.72808  -9135897.76508  21589720.60908  21589727.78308
 -13146018.97108 -10243662.74908  20805297.34908  20805304.99608
 93 04 07 22 02 00.0000000  0  7 15 11 27 02 13 26 19
  -8512323.77308  -6632942.51108  22090705.57808  22090713.65808
  -1215620.83108   -947207.24107  23494558.34408  23494567.02807
 -27291524.90508 -21266109.41708  18631170.23008  18631174.21808
 -18622900.66109 -14511326.56408  19266370.73709  19266375.19608
  -4827798.96108  -3761897.09907  21823716.53908  21823731.10807
 -11962311.27808  -9321265.05108  21544451.63708  21544458.70208
 -12868167.67308 -10027155.64708  20858170.89508  20858178.78008
 93 04 07 22 04 00.0000000  0  7 15 11 13 02 27 26 19
  -8584450.86208  -6689144.89908  22076979.86408  22076987.79308
   -815989.66508   -635805.84508  23570605.17508  23570614.04008
  -5297342.12708  -4127772.85507  21734363.92608  21734377.82607
 -18639263.98009 -14524077.07308  19263256.74109  19263261.18808
 -27190054.38308 -21187041.46508  18650479.41008  18650483.37308
 -12190501.84208  -9499075.49108  21501027.99908  21501035.00808
 -12583401.36908  -9805260.31108  20912360.68408  20912368.46808
 93 04 07 22 06 00.0000000  0  7 15 11 02 27 19 13 26
  -8647727.99408  -6738451.28408  22064938.16608  22064946.18708
   -412463.78208   -321369.55107  23647392.99908  23647401.77907
 -18652342.25009 -14534267.80008  19260767.99009  19260772.34308
 -27080578.59909 -21101735.67608  18671312.00809  18671315.95108
 -12293230.35808  -9579153.53508  20967578.70808  20967586.66908
  -5763197.53008  -4490775.04308  21645713.02008  21645726.50708
 -12410195.18008  -9670264.75308  21459221.49508  21459228.44408
 93 04 07 22 08 00.0000000  0  7 15 11 02 27 19 13 26
  -8702251.17808  -6780936.43808  22054562.47508  22054570.23308
     -5422.40008     -4193.93608  23724850.38708  23724858.55108
 -18662249.65109 -14541987.70908  19258882.56509  19258886.89508
 -26963117.91608 -21010207.89908  18693664.04008  18693668.04508
 -11997969.52108  -9349080.69908  21023765.34208  21023773.52008
  -6225360.60208  -4850900.16708  21557764.90008  21557777.96408
 -12621669.08208  -9835049.29008  21418979.09408  21418985.87508
 93 04 07 22 10 00.0000000  0  7 15 11 19 02 27 13 26
  -8748381.34908  -6816881.57608  22045783.79308  22045791.61808
    404500.04708    315226.78108  23802855.60208  23802863.47008
 -11698012.13008  -9115348.22608  21080845.73608  21080854.05608
 -18669373.64509 -14547538.73708  19257526.80209  19257531.12608
 -26837925.88208 -20912655.71508  18717487.30308  18717491.28708
  -6684083.98608  -5208345.10408  21470471.34408  21470483.79908
 -12825295.52408  -9993718.95908  21380230.14508  21380236.82708
 93 04 07 22 12 00.0000000  0  7 15 19 11 02 27 13 26
  -8785562.12308  -6845853.16908  22038708.32408  22038715.93708
 -11392818.98808  -8877535.93408  21138922.46308  21138930.87308
    817592.77108    637117.88808  23881463.80708  23881471.77908
 -18673173.53409 -14550499.55908  19256803.62709  19256807.89508
 -26704862.46008 -20808969.96808  18742808.45808  18742812.47108
  -7138697.02008  -5562587.21508  21383959.99308  21383972.05508
 -13020852.60108 -10146100.81208  21343016.52308  21343023.30608
 93 04 07 22 14 00.0000000  0  7 15 19 11 02 27 13 26
  -8813086.26408  -6867300.16608  22033470.39408  22033477.92408
 -11082160.24908  -8635464.74308  21198039.23908  21198047.83408
   1234301.50108    961826.61707  23960760.34608  23960768.15207
 -18673347.68509 -14550635.14108  19256770.40209  19256774.64808
 -26563389.45708 -20698731.30208  18769729.96108  18769733.93408
  -7588373.96508  -5912983.11308  21298387.98108  21298399.66308
 -13207215.97008 -10291318.69908  21307552.54808  21307559.20608
